GFSGL_sfc_wetblb_000.txt.gz
Wetbulb
73.19 73.75 73.33 71.84 72.06 72.63 71.92 71.98 72.38 73.24 73.07 72.23 71.48 70.71 70.17 69.39 69.94 69.31 69.05 69.05 66.81 68.10 68.09 66.94 66.44 65.78 63.42 63.02 62.78 62.19 61.02 60.71 60.03 62.56 65.63 67.74 68.40 67.55 68.77 71.42 70.85 70.29 72.08
72.43 73.44 72.47 72.45 72.32 72.48 72.05 71.87 72.86 72.11 72.61 71.79 71.36 70.52 69.97 69.27 69.45 68.55 67.82 68.09 67.30 66.56 66.86 66.50 65.50 64.00 63.68 62.58 60.98 60.18 59.86 60.05 60.14 61.04 64.05 65.98 67.49 68.16 67.83 69.65 69.51 70.12 69.45
71.86 70.16 71.71 71.99 71.66 71.85 72.03 72.39 72.23 71.90 71.19 70.95 71.11 69.62 69.23 69.15 68.79 68.79 68.11 67.53 67.41 66.82 66.91 65.58 65.24 64.17 62.19 61.73 60.85 59.54 59.21 59.03 58.82 59.19 62.34 65.76 66.84 68.02 68.27 69.19 68.39 69.25 69.68
69.69 70.04 71.13 71.40 71.67 71.46 72.23 72.70 72.02 71.67 71.29 71.58 70.55 69.89 69.16 68.99 68.86 67.96 67.63 67.08 66.36 66.52 66.65 65.45 64.86 63.73 62.56 61.24 60.29 59.41 58.65 57.10 57.74 57.84 58.90 62.48 65.41 66.78 67.91 66.83 67.95 69.95 69.54
70.25 70.82 71.52 72.32 72.20 72.09 71.91 71.81 71.44 71.44 71.22 71.37 70.27 69.75 69.74 68.99 67.15 69.00 67.60 67.25 66.57 65.85 66.02 64.97 64.64 64.79 63.34 62.23 60.64 59.80 58.07 56.18 56.30 56.36 56.86 58.82 61.27 64.64 65.36 65.93 66.96 68.32 69.62
69.16 70.05 71.82 71.91 71.37 70.94 71.78 72.03 71.58 71.60 71.88 70.73 69.59 69.35 69.14 67.75 62.92 64.73 65.25 66.33 66.06 65.22 64.30 64.79 64.61 64.04 63.41 62.16 61.65 61.33 59.52 56.98 55.68 55.84 56.54 55.88 57.86 62.25 66.11 65.87 65.76 66.22 65.48
71.11 71.09 71.17 71.57 71.21 71.57 71.32 71.18 71.35 71.68 71.13 70.38 69.74 69.10 68.50 68.50 60.11 61.34 63.64 64.36 64.36 64.24 64.61 64.45 63.17 63.85 62.74 62.27 61.82 60.85 60.03 59.19 59.19 57.85 57.14 57.79 58.11 60.55 64.71 65.78 65.47 66.13 66.04
70.58 70.70 70.92 71.12 70.82 71.50 71.30 71.07 71.38 71.28 70.60 69.30 68.77 68.97 68.40 66.88 59.30 59.18 61.17 63.92 64.12 64.53 64.89 64.09 63.02 62.89 63.53 62.41 60.87 60.03 59.41 57.83 58.66 59.33 58.92 59.36 60.38 62.49 63.25 66.58 66.65 66.16 68.36
70.00 70.28 70.87 70.92 70.74 70.96 70.71 70.43 71.24 70.72 69.51 69.31 68.84 68.31 66.98 67.09 59.00 57.58 59.35 63.53 63.19 63.30 65.24 64.12 64.11 62.69 60.45 57.59 58.70 58.18 56.51 57.33 59.14 58.23 58.21 58.35 58.93 59.71 60.85 64.42 65.59 64.43 64.42
69.53 70.49 71.33 71.41 71.50 71.07 70.86 70.29 69.18 71.26 68.86 66.88 66.66 67.76 65.24 67.84 57.94 57.30 59.87 59.54 59.51 61.24 63.89 64.19 59.93 58.71 55.36 52.84 56.23 57.10 56.02 56.75 57.01 57.57 57.52 59.96 58.77 59.18 59.81 61.22 64.02 65.03 63.62
70.98 71.38 71.69 72.12 72.45 72.66 72.40 70.20 69.47 67.35 66.64 67.22 67.26 67.31 67.58 65.84 63.88 58.32 56.26 60.78 60.10 61.52 60.22 60.30 63.30 54.46 50.96 50.74 51.52 57.84 55.13 55.23 57.47 57.43 56.96 57.88 62.67 62.23 61.38 62.64 65.97 68.04 64.80
73.28 72.43 72.95 73.36 70.22 68.99 72.25 71.18 68.75 68.99 67.37 65.80 65.90 64.51 63.87 63.23 57.18 57.19 56.82 55.96 57.73 59.58 59.82 61.03 61.78 49.83 48.81 50.25 53.53 52.78 53.19 55.42 56.38 56.56 56.06 55.64 56.40 61.97 64.49 67.63 67.18 68.24 69.44
74.37 73.94 73.97 73.31 71.56 72.14 70.49 68.22 68.28 67.36 65.49 66.42 63.74 61.61 61.20 61.87 63.19 57.13 55.30 53.85 54.76 56.47 60.95 57.78 52.49 49.74 50.35 52.27 51.88 52.89 54.50 55.41 54.91 55.15 55.43 55.84 56.26 58.32 62.65 68.04 68.84 67.99 68.46
73.07 73.39 73.24 71.25 71.51 68.77 68.76 67.48 64.49 65.96 64.15 63.38 59.85 62.63 61.97 62.40 57.38 55.02 56.70 58.49 57.02 58.36 56.63 57.51 56.91 54.05 51.87 52.57 53.52 54.15 54.41 54.39 55.13 55.17 55.33 57.32 57.72 56.54 56.84 59.49 66.57 67.50 66.69
71.75 71.30 71.31 69.46 68.61 67.26 58.53 57.08 61.84 52.97 53.23 59.13 57.19 58.41 56.11 57.12 51.35 45.70 46.00 51.70 52.78 51.11 47.19 57.28 60.38 56.92 52.95 51.74 52.13 53.33 53.18 53.18 52.90 55.30 55.76 55.94 56.66 55.56 55.56 56.88 58.71 61.07 65.01
69.27 67.81 67.30 66.80 61.85 64.74 60.55 56.43 45.84 45.27 43.25 42.08 43.08 48.90 51.14 45.86 43.00 42.12 41.99 42.04 42.58 43.97 52.58 56.56 54.10 53.51 51.88 50.49 50.69 50.95 52.13 52.32 51.71 52.33 54.66 54.03 56.22 55.88 54.65 55.72 56.64 56.20 55.83
67.51 67.76 65.84 61.66 64.77 64.33 64.00 63.51 59.32 50.99 45.79 44.34 43.99 44.15 44.25 43.56 42.60 41.58 42.68 43.31 46.04 47.72 54.93 52.66 51.51 51.37 50.27 49.53 48.85 49.47 48.95 50.51 52.94 51.82 52.32 52.88 53.11 56.26 55.83 54.89 55.11 54.96 54.35
65.94 56.39 64.00 64.34 63.77 63.14 62.22 61.01 60.65 60.28 57.66 56.76 46.26 46.62 44.33 44.38 43.70 42.76 43.14 47.13 54.49 52.99 52.22 50.39 49.09 48.74 47.66 47.88 47.77 47.73 48.26 48.82 49.71 51.57 51.64 51.55 52.02 53.16 56.14 55.73 55.15 54.55 54.33
63.95 63.14 63.99 63.87 61.93 60.06 60.48 59.37 58.45 57.16 56.26 55.55 55.62 48.66 47.73 44.53 44.23 44.33 46.09 52.77 51.27 49.66 48.77 46.35 45.02 43.10 42.12 42.53 42.88 42.96 46.33 45.33 46.39 49.28 50.18 49.87 49.75 50.09 51.04 55.86 56.54 53.48 53.52
62.68 57.05 59.05 62.98 59.92 60.17 58.77 57.66 56.97 55.97 54.66 54.10 52.67 50.43 50.28 50.48 50.89 50.78 50.65 50.09 49.23 48.53 46.54 44.32 42.92 41.56 40.98 41.00 40.63 41.62 42.27 45.84 46.13 46.52 48.93 49.49 50.27 49.21 49.31 51.14 54.75 53.84 55.04
59.66 60.59 56.26 60.63 59.31 57.97 56.92 55.55 55.42 55.42 54.12 52.54 50.81 48.09 42.20 50.19 49.08 49.18 49.20 49.26 48.97 49.09 49.39 49.08 48.19 47.45 45.25 44.43 42.71 41.94 42.17 43.24 45.32 46.24 46.60 46.96 47.05 49.25 50.14 49.53 50.54 52.08 50.54
58.32 59.42 59.45 59.73 58.51 58.05 57.26 57.13 55.69 54.35 53.56 52.06 50.67 48.31 43.06 49.44 48.53 48.26 49.18 50.31 50.26 51.57 50.34 49.68 47.80 46.96 45.96 44.28 41.85 40.46 40.22 41.52 43.62 44.05 45.11 45.12 45.42 46.85 47.73 49.89 48.91 48.60 48.65
58.35 59.02 57.60 54.52 53.65 51.31 52.83 55.17 55.01 54.64 53.75 52.85 52.22 49.84 48.66 48.62 48.33 47.16 48.11 49.99 50.98 48.97 48.29 46.95 45.75 44.67 44.73 43.27 41.56 39.06 38.00 37.60 39.86 41.73 40.81 44.33 44.27 44.89 44.77 46.39 46.88 47.04 47.40
55.78 54.83 54.25 53.83 53.51 53.58 53.46 53.84 53.08 49.27 50.28 51.42 51.25 50.36 49.88 49.87 48.79 48.11 48.08 49.20 48.61 47.15 46.90 46.40 44.37 42.00 41.50 40.87 39.62 38.18 35.43 33.78 37.59 37.30 40.18 44.91 43.16 43.54 44.78 44.16 44.15 44.56 45.80
55.26 55.06 54.81 54.26 53.62 52.74 52.55 52.08 52.41 52.03 50.73 50.08 49.76 49.10 49.01 48.60 48.10 47.65 47.30 46.64 46.09 46.29 45.24 45.04 44.98 42.62 40.23 38.50 36.83 35.28 31.43 30.36 34.85 31.94 38.26 43.47 44.62 42.93 43.91 43.99 44.48 44.27 44.29
54.29 53.81 53.33 53.04 52.33 52.14 51.26 50.74 50.68 51.01 50.02 49.61 49.02 48.38 47.84 47.04 46.63 45.87 45.68 45.50 45.20 44.56 44.38 44.60 43.89 43.29 41.48 38.09 34.96 31.27 29.56 30.13 31.87 30.84 34.72 44.23 41.36 42.37 42.00 43.20 43.62 43.17 44.23

GFSGL_sfc_wetblb_003.txt.gz
Wetbulb
69.63 68.51 67.71 67.03 66.47 66.46 65.47 65.04 65.53 66.26 66.64 66.08 65.81 65.52 65.22 65.29 65.36 64.68 63.87 63.91 63.77 62.83 63.29 62.08 61.90 60.51 59.13 59.30 58.50 57.33 56.65 56.27 55.30 56.78 58.81 60.88 63.54 64.47 66.75 69.23 69.69 68.86 69.54
69.11 68.58 64.96 64.23 65.57 65.68 65.05 65.02 65.27 64.42 65.07 64.97 64.63 64.80 65.54 65.34 65.35 64.47 63.26 63.98 63.20 62.04 61.49 60.96 61.32 61.95 59.44 58.80 57.87 56.69 56.15 56.63 56.55 53.84 56.53 58.15 60.17 63.65 65.53 66.28 67.50 69.40 68.80
68.06 67.42 65.68 65.55 65.48 64.34 65.12 65.17 65.03 64.66 64.26 64.11 64.60 64.80 64.38 64.56 64.53 64.36 64.30 63.79 62.79 62.98 61.63 61.56 60.74 60.18 58.24 58.24 58.15 57.15 56.49 57.53 56.25 55.20 54.84 57.57 59.44 61.15 63.72 66.28 66.34 67.03 68.77
67.96 66.90 65.80 66.40 66.11 65.72 65.52 65.43 65.62 65.18 64.57 65.52 65.72 64.73 64.50 64.47 64.34 64.84 64.25 63.20 62.29 62.33 63.01 61.97 60.65 60.38 59.14 58.65 58.00 57.01 56.61 55.04 54.60 53.78 54.23 55.31 57.30 58.92 61.16 62.67 64.35 66.62 66.56
66.46 65.71 66.30 66.74 66.49 66.35 65.98 66.26 65.58 65.19 65.74 65.45 64.89 64.32 64.62 65.36 65.89 63.03 63.00 62.37 62.23 62.01 62.18 61.89 61.66 62.00 63.72 60.68 58.66 58.07 56.21 55.62 53.79 53.54 53.25 54.98 55.82 55.80 56.86 59.88 61.95 65.26 67.26
65.65 65.94 67.94 67.91 67.02 66.36 66.06 65.94 65.24 64.80 65.27 65.50 63.45 63.41 63.79 65.08 61.31 63.08 61.95 60.03 61.05 60.74 60.10 60.85 61.23 63.36 61.85 62.48 62.18 62.33 61.02 56.83 54.04 54.74 54.61 54.73 55.65 56.97 58.09 57.94 59.87 62.08 62.38
66.09 66.26 66.95 67.09 66.56 66.39 66.57 66.54 66.45 65.74 64.28 62.88 63.57 63.84 62.95 63.18 60.94 60.46 62.15 59.06 58.70 59.20 60.01 59.93 60.16 62.34 61.91 59.63 60.25 61.07 60.85 60.83 60.23 57.34 55.87 56.37 56.41 57.51 58.21 58.16 58.92 60.63 63.02
65.26 66.23 66.55 66.40 66.49 66.62 66.45 65.98 65.93 64.53 63.74 63.51 63.33 62.80 63.02 63.59 60.83 59.20 60.34 58.09 58.87 59.85 60.21 60.45 59.88 59.33 59.63 58.68 57.60 56.49 56.95 56.93 57.66 58.48 57.92 57.49 58.04 58.42 58.38 58.94 59.49 60.83 64.93
65.05 65.60 66.67 66.73 66.00 66.01 66.34 65.94 65.61 64.90 64.13 64.10 63.91 62.96 62.84 61.83 57.66 57.70 58.03 58.07 58.64 57.99 59.40 59.86 59.73 58.21 57.01 55.97 54.27 53.96 54.85 56.39 58.14 58.02 57.88 57.94 58.18 58.55 58.80 58.49 58.64 59.58 60.32
66.05 66.87 67.45 67.23 66.55 66.35 66.76 66.02 65.29 64.74 63.93 62.43 60.50 62.52 62.06 59.79 57.96 57.19 57.30 57.76 53.86 56.25 58.42 59.04 57.76 55.69 53.83 53.02 53.65 54.06 54.88 54.83 54.98 56.39 56.74 57.68 58.68 58.48 60.18 58.84 58.35 57.45 60.98
67.31 67.12 67.61 67.60 67.66 67.60 67.23 66.08 64.05 63.44 59.61 59.39 61.43 61.91 62.01 59.54 58.74 56.19 54.76 56.20 57.75 57.33 56.15 55.73 55.47 51.96 50.49 50.79 51.28 54.12 53.94 54.48 55.59 55.59 56.13 56.89 57.86 57.64 58.23 59.47 59.57 59.42 60.32
66.95 67.17 67.62 67.76 68.74 68.68 64.55 64.36 63.77 63.77 60.84 60.70 59.91 60.16 59.73 59.41 56.83 56.61 55.73 54.96 57.07 54.60 53.43 55.59 51.76 49.20 49.34 49.90 51.04 51.51 52.14 54.23 55.10 55.05 55.21 55.51 56.09 56.33 56.33 59.03 60.28 59.89 62.19
66.51 67.32 68.13 68.42 66.02 64.39 63.02 63.44 62.57 61.09 61.08 60.50 58.81 57.52 57.13 58.32 56.55 54.86 53.72 54.25 54.29 54.03 54.24 53.85 50.28 48.65 49.70 50.52 51.91 52.46 52.87 53.28 53.21 53.34 53.88 54.79 55.87 57.27 57.07 57.23 63.64 61.45 62.48
60.07 62.26 65.84 64.48 64.03 63.75 62.00 60.70 59.38 56.71 56.93 58.62 56.87 55.51 55.91 54.48 50.63 50.61 51.77 51.72 52.67 51.27 50.65 49.01 52.69 52.14 51.05 51.31 51.36 53.07 53.47 52.60 52.20 51.60 52.83 54.88 55.07 56.55 56.33 56.77 56.09 57.51 63.96
58.53 66.18 64.89 65.38 61.88 55.48 51.86 53.17 56.91 48.91 50.61 54.02 51.95 51.70 51.72 49.40 47.62 44.77 45.60 48.27 47.34 46.96 44.81 50.77 54.14 51.62 48.64 48.09 49.09 51.53 51.54 51.35 50.80 51.04 51.85 52.54 53.08 54.23 56.19 56.67 56.25 56.15 55.71
64.88 63.51 61.53 61.38 58.34 56.39 51.99 49.22 44.79 45.53 42.97 43.04 43.35 47.94 46.44 45.65 43.23 42.39 41.88 41.37 41.52 43.33 47.76 48.02 47.17 46.98 46.35 47.32 47.21 48.46 48.82 49.30 49.35 50.90 51.31 51.34 51.07 52.05 54.50 56.29 55.77 55.21 54.58
62.63 60.74 58.65 56.77 58.11 57.91 54.25 51.89 48.58 47.68 44.56 43.00 42.97 43.59 44.72 44.16 42.91 42.03 42.34 41.80 44.72 47.54 47.31 45.27 44.48 44.46 45.00 45.20 44.21 45.46 44.87 46.08 47.81 50.32 50.62 49.99 49.80 50.76 51.33 54.63 55.21 54.55 54.01
60.68 56.90 57.64 56.83 58.89 58.81 57.95 58.33 57.05 52.40 50.62 48.74 44.73 44.93 43.45 42.69 42.33 41.66 43.79 47.72 48.50 46.46 43.60 41.50 40.34 39.80 41.63 41.57 42.01 41.41 43.24 45.29 45.83 46.56 49.50 49.33 50.01 49.03 50.24 52.32 53.56 53.64 54.06
59.59 58.37 57.83 57.55 57.50 57.12 56.35 54.65 53.94 53.23 52.19 51.70 49.95 46.92 45.42 43.72 43.27 43.50 45.32 46.72 45.03 43.37 41.14 40.22 38.35 37.19 37.62 39.20 40.86 41.73 42.18 43.48 45.78 46.08 46.63 46.27 47.17 49.35 48.35 49.83 51.34 49.44 50.54
56.29 56.47 56.48 57.56 56.26 55.67 54.86 53.56 52.98 51.45 50.30 49.53 48.01 46.80 46.71 46.90 46.55 46.73 46.42 45.67 44.87 43.66 42.27 40.15 38.30 37.55 37.76 38.17 38.63 40.23 41.76 41.28 43.53 42.98 43.51 44.23 44.35 47.04 48.30 47.86 48.08 48.95 48.33
57.78 56.24 57.43 56.39 55.23 54.13 52.96 51.95 51.13 50.92 50.03 48.10 46.20 44.24 42.10 45.34 44.59 44.71 44.55 43.95 43.54 44.32 43.75 43.37 42.15 40.05 38.94 38.46 35.89 35.86 36.91 38.84 39.66 39.94 40.13 41.75 42.87 43.26 45.46 46.94 47.17 47.66 47.01
56.70 55.44 56.05 56.99 55.10 53.78 53.42 53.09 52.49 50.53 48.76 47.19 45.06 43.36 43.08 44.46 43.82 43.83 44.70 46.82 44.25 44.26 42.96 41.11 40.21 38.95 36.92 34.36 33.14 32.93 33.80 35.16 36.02 36.67 37.53 39.09 40.79 41.51 41.77 44.23 44.33 46.06 46.41
57.15 55.36 52.39 51.59 52.05 51.37 52.35 53.38 52.84 52.50 51.47 49.97 47.00 44.65 44.48 44.33 43.38 42.67 43.29 44.13 42.91 40.67 40.19 38.87 37.79 36.19 35.53 33.57 32.08 31.97 31.29 30.53 31.83 34.95 34.39 37.27 39.46 39.44 40.70 40.38 41.08 41.94 44.16
51.31 51.24 50.31 49.78 50.14 49.70 51.25 49.82 47.61 49.22 48.89 47.94 47.54 46.39 45.56 45.16 43.70 43.38 42.93 42.68 40.19 39.58 39.45 37.67 36.21 34.43 32.90 31.75 30.90 30.19 28.28 28.37 31.07 31.56 32.88 35.93 38.34 38.68 39.88 40.10 40.33 40.98 41.63
50.49 50.64 50.27 49.90 49.64 48.17 48.66 47.19 47.34 48.71 48.44 46.12 45.18 44.14 44.90 45.52 44.00 43.70 42.71 39.44 39.12 38.17 38.05 37.98 35.73 34.74 33.17 31.88 29.59 28.37 28.80 30.30 31.17 31.62 32.99 36.62 37.54 37.86 37.86 38.54 38.71 38.96 40.03
49.10 51.06 47.86 47.36 47.47 48.42 47.29 45.71 45.23 45.61 45.06 44.80 44.09 42.92 42.22 41.42 40.41 39.55 39.03 38.71 38.01 37.28 38.03 37.51 37.01 35.25 33.68 31.75 30.56 30.35 29.17 30.11 29.91 30.70 33.01 36.92 34.82 35.35 35.95 36.97 37.88 38.47 38.95

GFSGL_sfc_wetblb_009.txt.gz
Wetbulb
65.62 63.88 62.82 62.39 63.51 63.64 63.13 62.50 62.50 62.35 61.95 62.47 62.18 62.69 63.03 62.66 62.29 62.04 62.04 62.04 60.95 60.61 60.69 60.69 60.70 60.10 58.26 57.28 56.74 55.42 53.55 53.45 52.65 51.89 53.48 54.50 54.75 54.89 56.34 56.74 58.30 58.60 60.31
66.27 64.47 63.42 63.54 63.33 63.38 62.71 62.68 62.33 62.23 62.95 63.90 63.81 63.29 62.76 62.76 62.65 62.53 61.89 62.39 61.69 60.84 60.74 60.51 60.37 61.08 58.80 57.20 56.62 55.68 54.86 53.82 53.30 52.02 52.96 53.68 54.08 56.40 55.66 55.07 56.97 59.16 59.22
66.54 65.23 64.19 64.12 63.94 63.47 63.49 63.12 62.63 62.52 62.64 62.25 61.98 61.29 60.83 61.22 61.86 61.69 61.99 61.87 61.37 61.44 61.30 60.06 59.52 58.76 57.98 57.78 57.16 56.54 55.80 56.28 54.45 54.39 54.77 57.39 55.46 55.74 54.98 55.44 56.11 57.17 58.54
66.96 65.96 64.48 64.66 64.97 64.50 64.37 63.57 62.94 62.68 62.37 62.35 61.34 61.14 61.31 61.95 62.23 61.83 61.84 61.31 61.30 61.47 61.17 59.86 59.58 59.09 58.87 58.26 57.72 57.54 57.18 55.54 54.65 53.72 55.84 55.79 55.34 55.22 54.97 53.96 53.85 56.35 56.00
67.64 66.64 65.06 65.06 64.61 64.52 64.41 63.93 63.41 63.49 63.44 63.23 62.07 61.91 62.40 63.10 63.38 61.96 61.79 61.92 61.23 60.29 59.90 59.70 60.07 61.20 63.29 61.01 59.01 57.90 56.74 56.46 55.67 54.93 55.70 55.19 53.91 53.14 52.68 54.15 54.27 55.03 55.58
68.14 67.18 65.83 64.59 63.71 63.60 64.05 63.92 63.75 63.73 63.54 63.40 62.33 62.47 62.16 63.47 61.96 62.39 63.59 60.66 59.55 58.80 57.72 57.31 57.72 60.77 60.56 62.01 62.64 62.35 60.16 56.46 55.52 54.67 55.12 53.61 53.48 53.16 54.02 54.47 53.93 53.65 51.78
68.33 66.91 65.05 64.83 64.33 64.04 64.38 64.23 63.76 63.53 63.27 63.01 62.26 62.37 62.18 62.01 60.18 60.28 62.65 59.29 57.69 56.65 55.72 56.02 57.32 59.69 60.11 58.57 59.66 60.27 60.26 60.82 60.59 56.14 53.63 53.58 52.45 53.81 54.82 54.21 54.47 53.99 53.32
66.78 65.34 65.72 65.11 65.01 64.39 64.19 64.19 63.87 63.82 62.85 62.36 62.08 62.46 61.45 62.81 58.76 59.55 60.87 59.98 57.31 56.35 56.64 56.96 55.66 55.52 56.64 57.18 56.02 53.94 53.62 53.68 54.13 55.07 54.48 54.85 54.83 55.29 55.48 55.62 55.44 55.30 56.02
65.72 65.17 65.48 65.45 64.68 63.94 63.34 63.80 64.40 63.11 63.10 62.71 62.14 61.28 61.40 62.50 59.95 58.10 58.73 57.82 56.36 56.12 55.17 55.60 56.24 55.21 56.49 56.68 53.17 51.87 51.24 52.17 55.85 56.94 56.83 56.61 56.69 57.22 57.39 56.46 54.36 53.41 52.57
65.54 64.68 65.07 65.03 64.06 63.28 63.70 63.88 63.49 63.80 63.32 62.74 62.43 61.90 60.33 60.91 57.66 55.90 56.12 56.34 54.51 53.56 55.27 56.81 55.75 54.44 54.02 52.83 50.75 49.40 50.51 50.74 51.91 52.87 53.65 54.81 55.97 55.96 57.54 56.88 55.74 52.90 52.50
64.21 64.01 64.02 64.13 64.30 63.75 63.39 63.38 63.71 62.61 61.23 60.51 61.00 60.81 60.69 59.71 58.47 54.74 54.08 54.90 54.35 54.88 53.86 53.59 53.05 53.34 50.49 50.24 50.57 48.88 49.02 50.00 51.18 52.60 53.03 53.10 53.98 54.29 55.42 56.00 56.04 54.73 52.84
62.38 60.83 59.77 61.54 61.75 61.25 61.08 60.53 61.81 62.46 60.96 59.61 59.18 59.18 58.90 55.86 53.40 53.87 52.54 52.70 55.82 52.45 51.84 51.84 51.06 49.64 48.34 49.58 50.07 50.89 50.98 51.87 50.12 51.70 50.62 50.37 50.94 52.16 54.04 54.88 55.62 56.04 57.90
61.11 59.69 59.47 60.19 60.48 61.25 59.90 58.00 58.28 60.81 59.27 58.26 57.64 56.94 55.56 54.53 52.60 51.14 50.53 51.55 52.28 50.04 50.66 49.83 49.60 47.60 48.52 49.35 50.74 50.66 50.25 47.41 48.42 48.33 48.85 49.95 51.30 52.49 53.48 54.36 55.44 56.14 58.03
59.36 59.05 59.60 59.59 59.08 59.34 59.66 59.47 60.05 59.95 58.60 57.80 57.30 55.84 52.98 50.92 49.85 49.63 49.63 48.48 50.27 49.09 48.55 48.63 49.70 50.18 49.86 49.58 48.83 46.06 46.23 46.85 46.85 45.89 47.66 49.93 50.92 51.12 51.36 53.31 53.17 53.92 55.14
60.17 60.57 59.44 58.37 58.13 57.50 53.78 54.40 56.92 52.08 53.12 55.08 54.00 53.73 52.08 49.28 48.93 46.13 45.85 46.74 45.66 44.97 45.64 49.22 47.53 45.79 45.07 43.53 41.59 42.59 43.34 43.77 43.18 44.19 45.68 47.30 48.52 49.48 50.15 51.67 52.73 52.57 52.99
58.54 58.76 58.74 58.44 58.38 55.74 52.18 48.49 45.09 44.13 43.10 42.62 45.16 48.57 46.13 46.15 44.22 42.21 40.79 40.84 40.60 41.86 46.94 44.50 43.22 41.49 39.90 38.84 38.27 38.71 39.72 41.83 42.13 43.10 44.42 46.09 45.08 46.38 48.36 49.79 50.82 50.66 51.18
56.42 57.38 57.84 57.38 55.93 52.53 52.60 49.72 48.85 46.65 42.67 40.66 41.36 42.74 43.60 43.56 42.42 40.90 40.27 40.14 41.10 43.96 43.10 40.80 39.64 38.15 37.78 37.17 36.87 36.58 37.03 38.76 40.35 41.11 41.90 42.21 42.92 43.49 47.08 47.57 48.81 49.37 49.34
56.46 54.60 57.26 57.36 55.84 52.96 52.07 52.14 51.46 48.77 46.49 45.99 42.33 42.52 42.40 43.25 42.00 42.18 42.25 43.24 43.21 42.70 39.40 37.99 36.27 35.52 34.97 34.69 35.06 35.21 36.37 37.72 38.43 38.54 38.97 39.82 40.21 41.42 43.49 45.17 46.69 47.79 48.16
57.46 57.26 55.60 56.34 55.36 53.40 52.71 52.13 51.56 48.47 47.13 46.16 45.87 44.43 42.25 42.12 42.64 42.36 42.73 43.52 41.18 40.78 37.08 35.89 35.57 35.13 35.05 34.91 34.00 33.82 35.53 36.02 36.45 35.76 36.65 37.52 38.72 39.01 40.09 42.80 44.58 46.37 47.39
55.52 55.92 55.66 55.58 55.23 54.07 54.65 53.47 50.79 50.73 48.00 47.10 46.50 46.50 45.35 45.14 44.27 43.37 42.95 42.39 40.42 39.16 37.99 37.18 36.56 35.90 35.87 33.23 31.20 31.37 34.07 33.67 33.47 33.72 34.59 35.88 37.66 38.35 39.00 40.14 41.92 44.61 46.40
53.94 54.67 55.92 54.41 53.06 52.36 51.69 52.07 51.87 50.63 49.52 48.31 46.66 45.57 43.87 44.91 43.59 42.54 42.08 41.33 41.56 41.07 39.64 38.78 37.73 35.97 30.75 29.57 30.22 31.20 31.68 31.66 31.96 32.46 33.50 34.82 36.41 36.37 38.00 39.30 40.67 43.48 44.25
54.73 54.03 53.78 53.16 52.23 52.20 52.91 50.82 50.30 49.28 49.02 48.18 46.65 45.06 41.44 45.10 43.30 42.23 41.87 42.02 41.35 41.00 38.08 35.34 32.67 30.21 28.77 29.10 29.67 29.51 29.21 29.39 30.46 31.25 32.65 34.49 35.54 35.87 37.22 38.26 38.98 41.30 42.14
53.45 53.73 53.28 52.51 52.42 51.70 50.81 50.63 50.11 49.64 48.94 48.30 47.06 45.84 44.27 44.90 42.36 41.56 41.67 41.40 39.65 37.06 35.18 33.80 31.74 29.63 28.66 28.13 28.18 28.48 28.33 28.10 28.33 29.91 31.32 33.88 34.56 34.61 35.15 35.88 37.40 37.50 38.47
52.80 52.87 52.78 52.02 51.37 50.76 50.54 50.29 50.31 47.84 48.25 47.68 46.85 44.98 45.90 43.86 41.92 41.53 41.63 39.53 37.31 35.73 34.59 32.80 31.17 29.61 27.80 27.11 26.71 26.14 26.61 27.71 28.83 29.87 31.99 33.07 33.67 34.42 34.41 34.76 35.84 36.83 37.19
49.65 49.27 49.09 48.74 48.32 47.85 47.15 47.21 46.28 46.28 48.05 47.60 46.63 46.03 43.88 43.80 42.32 41.55 40.99 37.10 36.50 34.92 33.76 32.06 30.23 29.56 28.36 27.10 26.30 26.27 28.24 30.21 30.97 32.24 32.26 32.57 33.43 33.96 33.95 33.85 34.64 35.25 35.99
45.93 48.61 49.85 48.19 46.85 46.47 45.95 45.99 45.41 45.04 44.76 44.90 45.59 43.75 43.67 43.60 42.54 41.46 40.41 36.11 35.10 34.70 33.54 31.86 30.98 30.48 29.75 28.79 28.15 29.36 28.45 30.18 31.07 31.12 31.89 31.99 32.19 32.61 33.16 33.42 34.52 34.32 34.85

GFSGL_sfc_wetblb_012.txt.gz
Wetbulb
69.56 67.53 65.62 62.68 62.71 63.13 63.44 64.30 63.64 63.40 64.06 64.48 64.52 64.54 64.45 64.45 65.12 64.36 64.30 64.39 64.26 64.12 63.77 63.47 63.39 63.61 62.61 61.30 60.65 59.61 58.35 57.28 55.07 56.97 56.90 59.08 59.23 60.01 60.55 60.89 60.50 60.08 60.51
70.04 66.75 64.94 63.63 63.59 63.85 64.08 64.34 63.90 64.04 63.90 64.24 64.28 64.43 64.68 65.14 65.05 64.54 64.48 64.98 64.41 63.83 63.97 63.56 63.39 63.35 62.78 62.45 60.60 60.42 59.57 58.51 57.22 56.30 58.81 57.62 58.63 60.74 60.67 59.51 59.21 59.73 60.27
69.70 65.79 64.56 63.59 63.70 64.13 64.30 64.04 63.66 63.86 63.90 64.57 65.14 64.94 64.59 64.41 64.15 64.39 64.39 64.19 64.10 63.93 63.97 63.48 63.31 62.40 61.70 61.60 61.07 60.59 60.67 60.24 58.21 57.18 57.50 59.51 59.39 60.37 59.20 59.93 59.42 59.43 59.53
68.83 66.30 64.96 63.99 63.92 64.39 64.54 64.14 63.90 63.66 63.55 63.93 64.46 64.30 63.82 63.37 63.62 64.36 64.41 63.86 63.66 63.64 64.26 63.68 63.07 62.12 62.05 62.31 61.53 61.51 61.24 59.97 59.51 57.83 57.39 58.06 58.90 60.53 58.58 56.93 56.62 58.36 58.10
68.04 66.69 65.94 65.38 65.20 65.07 64.62 64.69 64.15 63.68 63.86 64.67 64.43 63.79 63.55 63.63 64.14 64.81 64.59 64.26 64.06 63.84 63.81 63.29 62.74 62.50 62.61 62.98 62.23 62.18 60.58 59.81 59.45 57.70 56.74 57.71 57.78 58.01 57.06 57.96 55.93 56.71 58.15
68.37 67.21 67.43 65.83 65.54 65.54 65.42 64.99 64.46 64.07 64.12 63.51 63.46 63.77 63.77 64.06 62.37 62.31 64.46 64.35 64.30 63.24 62.33 62.57 61.36 61.22 61.63 61.35 62.02 62.43 62.68 60.37 59.19 58.29 57.51 56.22 57.68 58.18 58.23 56.03 55.49 54.49 53.29
68.73 68.38 66.65 64.83 65.36 65.13 64.94 64.73 64.86 64.26 64.28 64.21 64.04 64.15 64.06 64.92 60.83 60.36 62.22 64.36 62.98 61.64 61.20 60.81 60.15 60.95 61.04 60.12 59.84 59.67 60.43 60.20 60.95 60.21 56.73 57.36 57.57 57.89 57.76 56.03 55.63 54.56 54.39
68.58 68.06 65.74 65.25 64.45 64.87 65.05 64.97 64.87 64.37 64.06 63.82 63.67 64.17 63.97 64.51 59.71 59.03 61.21 63.17 62.50 61.69 60.63 59.78 59.70 59.61 59.38 59.23 59.27 58.18 57.47 57.37 57.63 56.86 57.28 57.20 57.75 58.31 57.88 57.28 55.43 55.05 55.82
67.75 66.50 66.10 65.39 65.01 65.38 64.99 64.39 64.72 64.76 64.16 64.30 64.94 63.82 62.71 63.58 58.92 58.17 59.86 62.44 61.12 60.89 59.67 59.25 58.34 59.44 57.52 56.99 57.14 56.24 55.75 55.83 56.04 55.85 56.11 56.00 56.12 56.40 57.15 56.64 54.44 54.03 52.24
66.45 66.36 66.45 66.41 66.86 65.80 65.36 64.64 64.63 64.74 64.77 64.58 63.50 63.37 61.05 63.51 59.48 57.05 58.21 60.85 59.91 58.55 58.02 59.08 57.07 57.02 54.14 52.95 55.42 54.25 53.67 53.97 53.46 53.91 54.54 54.96 55.61 55.92 56.15 57.41 56.35 53.03 52.33
65.62 65.92 65.91 66.14 65.20 64.81 64.47 65.12 64.66 63.77 62.53 62.76 62.58 62.68 63.34 63.03 62.23 56.44 54.06 59.78 58.94 57.92 57.60 57.09 57.28 53.55 50.89 50.18 50.58 53.87 52.99 53.49 53.00 52.48 51.86 52.20 52.71 53.29 54.31 56.17 56.76 54.20 52.23
64.05 64.22 64.37 64.64 65.25 63.91 62.41 63.12 63.31 62.42 61.41 61.17 61.81 60.18 63.21 61.84 54.51 55.10 52.15 53.45 56.64 57.89 56.29 55.53 54.96 49.80 49.15 49.13 51.34 50.53 50.51 51.33 51.97 51.47 50.31 50.42 51.23 51.87 53.23 53.80 54.80 54.59 55.56
61.03 60.69 60.82 61.81 62.23 62.10 61.08 61.01 60.83 61.12 60.82 61.54 61.48 61.45 60.32 57.99 55.47 50.51 50.93 51.45 52.94 54.15 53.83 52.47 49.92 47.59 48.01 49.78 49.95 49.62 49.32 50.56 49.91 48.41 47.64 48.61 50.76 52.25 53.20 53.07 54.82 54.46 55.51
59.61 59.83 60.02 60.09 60.11 61.26 60.80 59.33 59.88 60.35 60.52 60.81 59.76 59.17 58.49 55.89 54.85 53.93 53.19 52.90 51.19 51.83 50.12 52.03 51.14 51.31 49.74 49.49 48.79 47.83 48.75 49.19 48.54 47.04 47.19 48.33 50.46 50.52 50.02 52.22 51.14 52.15 52.37
60.10 59.70 59.80 60.56 60.16 58.25 51.23 53.95 59.48 56.06 57.01 59.03 59.26 58.14 55.65 54.16 53.16 49.68 50.06 51.69 51.54 48.75 48.90 51.98 51.87 50.34 48.73 46.58 45.83 45.86 46.35 46.56 45.68 46.11 45.94 46.57 47.63 47.28 47.14 49.96 50.71 51.07 50.44
60.73 60.46 59.70 59.27 58.54 55.40 53.85 51.66 44.83 43.80 43.72 43.02 43.79 52.40 51.02 47.85 43.53 42.46 41.78 40.41 39.90 41.22 49.45 50.53 48.70 46.73 45.57 44.19 43.35 43.26 44.06 43.80 43.68 44.28 43.85 44.59 44.00 44.86 45.31 47.87 49.99 49.86 49.53
60.05 59.66 59.35 58.00 56.43 55.92 54.62 53.31 51.37 47.11 42.09 40.33 41.60 42.55 44.14 43.66 42.10 41.37 40.41 39.67 40.59 44.03 49.25 46.96 45.99 44.29 43.17 42.69 41.75 41.41 41.64 42.47 42.92 42.53 42.64 42.30 42.51 43.56 44.22 45.68 47.90 48.10 49.01
59.75 53.61 58.90 58.93 58.27 55.38 55.50 54.20 53.29 52.07 50.87 48.95 43.09 43.43 41.40 41.15 41.13 40.08 40.25 43.19 47.49 46.25 46.34 43.98 43.59 41.83 41.28 41.20 40.66 40.18 40.87 41.48 41.33 40.95 40.96 41.38 41.67 41.77 42.43 43.92 44.97 45.54 47.17
58.55 58.37 58.75 58.22 57.27 54.84 54.58 53.96 53.20 51.35 50.33 49.21 48.53 45.16 41.62 41.14 41.34 41.13 42.20 48.15 47.00 45.42 43.86 42.45 41.45 41.69 41.59 41.38 39.40 38.57 39.82 39.96 39.60 39.56 39.77 40.08 40.91 41.57 41.97 43.41 44.09 44.24 46.49
59.23 56.48 56.19 57.07 55.08 54.62 54.40 53.48 52.57 51.99 50.28 49.75 49.95 50.51 49.49 48.30 49.04 48.16 47.26 46.62 45.58 44.10 43.22 43.23 42.39 42.21 42.08 38.89 37.35 37.79 39.81 39.24 39.06 39.12 39.20 39.86 40.69 41.70 41.99 42.22 43.47 43.94 45.26
57.44 57.66 56.68 56.52 55.41 55.17 54.86 54.40 53.42 52.64 51.22 50.85 51.29 50.00 45.31 50.06 49.02 47.59 46.82 46.17 46.20 45.58 44.77 44.37 43.52 42.35 38.12 36.92 38.32 38.81 38.54 38.56 38.21 38.40 38.95 39.51 40.39 40.59 42.29 43.10 43.36 44.02 44.62
57.08 56.33 56.45 56.53 55.85 55.09 54.71 54.34 54.01 53.80 52.51 51.86 50.82 49.19 41.93 49.63 48.34 47.97 47.02 46.66 46.86 46.81 46.26 43.37 40.75 38.49 37.09 37.69 38.01 38.14 37.83 37.71 37.99 37.94 38.66 39.27 40.28 41.00 41.83 42.19 42.67 42.99 43.15
56.63 56.10 55.96 55.79 55.31 53.61 54.79 54.81 53.44 52.98 52.25 51.69 50.63 48.75 47.13 47.70 46.55 47.00 46.75 47.06 46.82 44.51 42.14 40.42 38.63 36.94 36.09 36.57 36.80 37.03 37.47 37.60 37.01 36.89 37.91 39.12 39.80 40.23 41.20 41.62 41.59 41.76 41.92
55.86 55.79 55.14 54.60 54.54 54.27 53.80 53.43 53.18 49.67 52.32 51.04 49.72 49.29 48.88 48.47 47.41 46.85 46.79 46.31 44.26 42.50 40.75 39.40 38.30 37.01 35.78 35.59 36.10 35.75 35.74 36.36 37.18 37.85 38.23 39.10 39.83 40.09 41.01 41.54 41.40 41.56 41.21
53.93 54.13 54.16 54.10 53.55 53.04 52.55 53.10 52.92 52.86 52.34 51.73 50.93 49.78 49.03 48.60 47.38 46.43 46.33 45.12 43.09 41.33 39.93 39.01 37.85 36.54 34.97 34.35 34.34 34.71 33.22 30.23 35.35 33.78 39.62 39.88 40.32 40.44 40.50 40.81 40.90 41.25 40.90
50.68 51.70 51.42 51.42 51.27 51.10 50.85 50.91 50.89 50.27 49.97 50.87 50.68 50.02 49.21 48.23 47.81 47.01 45.68 43.98 42.33 40.99 40.09 38.92 37.87 36.39 35.52 35.14 35.10 32.75 29.44 29.94 34.91 31.16 39.26 40.29 39.82 40.31 40.53 40.37 40.51 40.42 40.60

GFSGL_sfc_wetblb_015.txt.gz
Wetbulb
74.87 75.66 75.69 73.60 72.98 71.45 71.21 70.04 68.06 70.56 69.96 70.27 70.38 69.78 69.62 69.74 69.70 69.59 69.67 69.34 68.55 69.13 69.22 68.84 68.72 69.50 67.74 67.36 67.31 66.35 64.86 63.56 60.81 61.96 63.76 64.64 64.45 64.83 65.62 66.68 66.27 65.73 64.68
74.93 75.34 74.43 72.73 69.42 71.12 65.74 68.77 69.83 68.79 69.17 69.71 69.69 69.20 69.35 69.04 69.73 69.32 68.89 68.24 68.32 68.18 68.35 68.81 68.40 68.08 68.39 68.55 67.91 66.94 66.05 66.03 62.88 61.58 64.46 63.88 64.96 65.50 65.55 65.26 65.17 65.06 64.44
74.62 73.81 73.17 71.64 69.08 68.23 69.11 67.75 68.49 68.64 67.98 68.47 68.18 68.25 67.98 68.57 69.26 69.84 68.91 68.44 68.54 68.08 68.36 68.35 68.20 68.26 68.12 67.40 66.75 65.75 65.38 65.37 64.86 61.56 61.38 63.21 63.93 64.76 64.47 65.05 64.87 64.93 64.51
74.01 73.93 73.36 72.02 70.89 69.30 66.54 66.43 65.14 65.61 66.60 67.08 66.95 67.93 68.44 69.06 69.07 69.05 68.13 68.32 68.70 68.38 68.34 68.34 68.44 67.95 67.67 67.55 66.66 66.31 65.88 64.74 64.27 61.87 61.66 61.71 62.44 64.32 63.40 61.84 61.33 62.88 62.19
74.25 73.64 72.66 72.02 71.26 69.55 68.12 66.79 65.74 64.49 65.26 65.48 65.99 67.14 67.55 66.35 67.37 67.82 68.14 68.57 69.00 68.62 68.70 68.65 68.81 68.04 65.90 65.00 64.87 65.35 65.43 64.05 62.69 61.67 61.07 61.18 61.16 61.11 60.79 61.63 60.72 61.24 62.41
74.33 73.19 73.02 71.72 69.86 69.12 68.65 68.26 66.76 64.97 66.03 66.18 65.53 66.18 66.09 66.13 63.08 62.55 66.19 68.58 69.16 68.56 67.93 68.37 68.74 65.42 64.39 62.52 62.15 62.56 63.53 63.08 62.42 62.01 61.26 60.50 61.35 61.17 61.41 60.31 59.58 58.18 56.55
73.54 73.40 72.45 71.24 69.29 69.13 68.88 67.79 66.94 64.22 64.44 66.34 66.41 66.83 66.92 68.25 61.38 60.80 63.08 67.67 68.28 68.21 68.79 67.77 67.29 65.52 63.40 64.73 62.29 60.83 60.86 60.73 61.07 62.07 59.42 60.21 60.29 60.99 60.54 59.04 58.39 57.80 56.92
73.34 72.73 72.02 70.36 69.69 69.24 69.40 67.84 67.30 67.60 63.71 65.23 66.96 66.96 67.25 68.38 60.85 59.66 61.52 66.29 67.94 65.51 66.50 66.95 65.98 65.61 64.80 62.87 62.95 62.74 63.05 62.86 62.56 61.30 61.22 60.70 60.74 60.35 59.18 58.00 57.11 56.27 57.02
72.69 72.44 71.35 70.42 69.76 68.91 68.46 66.78 66.30 66.88 66.61 67.72 66.99 66.84 68.13 68.70 58.88 58.13 61.62 66.39 66.18 65.71 66.73 65.88 64.73 64.20 59.60 57.17 61.00 60.81 61.28 61.60 59.29 56.40 55.97 55.80 55.83 56.24 56.83 56.05 54.46 54.60 54.63
72.31 72.10 71.63 70.76 69.84 68.76 66.94 66.59 67.95 68.44 67.51 66.55 67.25 67.73 65.01 68.13 60.01 56.72 61.96 66.01 65.29 63.34 66.43 64.43 57.86 59.90 54.85 54.24 60.56 60.56 59.30 59.85 58.87 58.56 58.77 58.06 58.14 58.56 57.01 57.51 56.06 53.45 53.63
72.14 72.13 70.77 70.03 69.00 66.94 67.08 67.66 68.24 67.53 66.77 65.31 66.50 67.35 68.39 66.16 65.41 56.88 55.05 65.41 63.73 63.95 63.57 62.66 62.83 54.45 52.06 50.91 51.88 59.74 57.49 55.44 56.50 56.80 56.84 57.08 57.71 58.04 58.43 59.22 59.06 56.91 54.49
70.33 69.99 69.15 69.30 68.99 67.90 66.97 67.28 67.37 67.57 67.08 65.85 65.69 65.34 66.27 66.72 56.27 56.18 54.54 54.83 59.68 63.36 62.72 62.82 60.87 51.09 49.59 50.01 53.18 50.83 50.36 50.84 55.66 55.37 55.03 54.94 55.05 55.02 56.07 56.65 57.23 58.12 58.88
68.79 67.70 68.31 69.09 69.43 69.00 68.12 67.85 67.12 67.15 64.37 64.46 63.64 61.10 63.85 64.62 64.17 51.65 50.66 51.69 53.87 60.31 61.82 56.21 50.79 48.18 48.56 51.19 50.53 49.77 48.96 54.49 54.06 52.97 52.55 52.65 53.01 53.77 55.09 55.03 55.71 58.04 58.86
68.20 67.73 68.27 68.48 67.65 67.91 67.11 66.55 64.90 63.79 63.18 63.31 63.26 63.34 64.06 63.31 61.93 61.14 59.77 58.22 52.57 55.67 53.10 58.26 54.47 53.79 50.77 52.55 52.78 53.01 54.00 53.04 51.39 51.02 50.75 51.52 52.21 52.04 51.52 52.48 52.29 55.22 54.24
67.42 67.18 67.67 67.75 66.97 61.35 57.89 60.74 64.00 64.23 60.48 63.65 63.79 64.04 63.48 62.22 61.05 55.97 55.93 59.69 59.85 54.14 55.43 58.72 58.19 57.85 57.11 56.19 54.74 53.39 52.60 51.95 50.52 50.35 49.87 49.61 49.53 49.58 49.67 50.95 52.97 54.37 52.61
65.23 65.00 64.81 64.09 62.10 60.87 59.68 55.05 43.95 44.65 43.73 43.29 46.22 57.07 57.31 47.80 42.89 42.18 42.13 40.73 41.44 43.05 54.77 56.89 56.73 56.42 54.74 53.60 52.24 51.50 51.52 49.44 49.74 49.05 48.97 48.66 47.96 47.74 48.22 50.02 53.26 53.39 52.35
65.70 65.50 63.85 62.14 61.69 61.07 60.25 60.43 58.70 48.97 42.36 41.07 41.88 43.51 46.26 44.89 41.77 41.24 40.97 40.62 40.67 43.83 54.89 55.46 54.89 54.03 52.99 51.56 50.37 49.85 48.61 48.53 48.86 48.28 47.92 47.93 47.82 47.68 47.81 49.35 51.47 50.11 51.99
65.81 55.86 64.67 63.64 61.85 59.99 60.07 60.67 60.96 60.00 58.53 55.13 43.60 45.47 41.04 40.70 40.34 40.48 41.12 45.37 52.28 50.94 55.67 54.29 52.96 51.56 50.47 50.71 50.10 48.30 47.50 47.00 47.23 47.14 47.25 47.44 47.65 47.10 47.25 48.26 50.09 48.04 49.26
63.79 63.51 64.04 64.04 63.84 60.77 58.81 60.61 60.54 59.95 58.79 56.56 53.98 48.20 45.15 40.92 40.47 40.26 41.67 55.69 54.83 53.67 52.87 51.80 51.06 50.64 50.98 50.63 48.87 46.90 45.22 45.90 45.57 46.34 46.69 46.84 47.12 46.93 47.10 47.89 49.33 47.36 48.28
64.39 58.03 59.78 63.48 61.53 61.55 60.70 60.56 59.88 58.81 57.78 56.66 55.84 56.04 54.41 50.87 53.38 54.24 54.44 53.97 53.94 53.66 52.53 51.91 51.13 51.12 50.84 49.35 46.61 45.00 45.83 47.13 46.61 46.22 46.01 46.60 46.98 47.12 46.89 47.03 48.03 49.47 49.12
64.09 63.89 58.91 63.25 62.19 61.75 61.44 60.62 59.99 59.06 58.23 57.63 57.68 56.40 49.03 56.04 55.59 54.88 54.24 54.00 53.53 52.93 52.02 51.98 51.80 51.01 49.20 47.42 46.03 47.14 47.66 46.97 46.05 45.58 45.74 46.04 46.67 46.28 47.24 47.49 47.62 48.70 49.11
62.64 62.59 62.54 62.62 62.12 60.85 60.70 60.36 60.08 59.93 59.17 58.25 58.14 54.17 43.31 55.77 55.76 54.71 53.92 53.32 53.79 53.73 53.77 52.88 50.82 49.17 47.58 46.38 46.45 47.36 47.07 46.04 45.50 45.10 45.10 45.58 46.23 46.47 46.80 47.08 47.19 47.54 47.87
61.87 61.63 61.90 62.20 62.24 57.12 59.13 60.47 59.88 59.37 58.76 58.94 58.52 56.64 54.44 54.87 52.63 53.77 53.11 53.52 53.32 52.95 52.29 50.23 48.80 47.52 46.43 45.46 46.53 46.90 46.17 45.33 44.69 44.55 44.39 45.01 45.68 45.76 46.21 46.47 46.77 46.49 46.25
62.10 61.92 61.26 60.79 60.20 60.43 60.14 59.88 59.12 53.01 58.31 58.39 57.66 56.57 54.76 53.59 55.24 54.25 53.37 53.33 53.17 52.53 50.73 49.06 48.37 46.33 44.43 43.33 44.90 45.41 46.13 45.98 45.28 45.28 44.73 44.91 45.38 45.24 46.03 46.29 46.56 46.69 46.58
61.62 61.45 60.88 60.57 59.77 59.67 58.65 58.38 57.82 58.53 58.05 57.95 57.39 57.09 57.09 56.79 55.76 53.73 53.23 52.79 52.07 50.93 49.23 47.93 47.03 44.94 42.98 41.81 41.63 41.66 37.53 31.31 38.38 34.74 45.04 45.22 45.55 46.10 45.76 45.66 46.14 46.47 46.60
59.42 59.94 59.52 59.03 58.46 58.52 58.24 57.58 57.65 57.80 57.33 57.46 57.31 56.80 56.47 56.23 56.33 55.57 53.87 52.70 51.40 50.25 49.06 47.75 46.12 44.51 42.67 42.20 42.02 36.51 29.72 29.97 37.94 30.83 42.33 45.71 45.36 45.23 45.14 44.91 45.14 45.34 45.78

GFSGL_sfc_wetblb_021.txt.gz
Wetbulb
79.73 80.17 79.88 79.63 79.09 80.05 79.32 79.38 78.80 78.56 77.54 76.02 75.11 74.88 73.36 72.51 72.30 73.02 72.17 71.47 70.87 71.51 71.06 70.22 69.78 71.50 67.89 67.49 67.81 68.18 66.81 66.84 62.90 64.69 67.11 68.21 71.35 70.48 69.81 70.34 68.65 67.71 67.79
79.09 80.25 79.81 80.11 79.36 78.83 79.10 79.24 79.25 77.74 77.70 76.37 75.54 74.54 72.51 70.79 69.55 69.50 70.87 69.89 70.57 70.00 70.63 70.97 69.86 68.37 71.70 71.36 68.14 70.06 67.79 68.93 64.37 65.67 66.77 65.82 68.67 70.03 70.56 70.84 68.00 67.28 65.86
78.67 78.78 79.76 79.69 79.19 78.76 79.25 79.48 78.95 77.97 74.81 75.06 74.92 73.00 72.39 70.25 69.04 71.52 71.63 70.61 70.22 70.67 70.62 70.10 69.95 70.70 70.33 68.75 71.12 68.54 67.16 68.17 69.30 64.31 64.43 66.05 66.52 66.91 66.89 68.83 69.53 68.33 67.18
77.10 77.57 78.74 79.68 79.61 79.11 79.58 79.41 79.06 77.38 75.65 74.95 74.56 73.84 71.99 71.08 70.57 71.06 71.01 70.44 70.35 70.37 69.99 70.30 69.85 70.29 69.71 70.67 70.14 69.99 69.28 67.33 66.72 64.48 64.59 64.06 64.88 67.16 64.24 64.40 63.54 65.05 61.74
78.46 78.47 79.11 80.21 80.23 80.12 79.20 79.31 78.86 76.77 75.89 74.92 74.03 73.49 72.14 69.34 68.77 70.13 70.37 70.08 70.46 69.71 69.68 71.06 71.11 71.01 68.64 67.94 67.56 68.45 69.96 67.16 64.90 63.59 63.13 62.90 62.89 64.14 63.01 63.62 62.45 63.27 64.02
79.30 78.91 79.85 80.60 80.01 79.64 79.23 78.64 77.87 76.46 74.70 74.09 73.45 71.78 70.39 66.40 63.46 64.80 68.73 68.99 70.35 69.79 70.21 69.70 70.65 69.57 68.72 65.39 64.82 64.33 65.43 65.95 66.35 63.72 62.80 61.85 64.51 64.21 64.56 63.66 62.23 60.25 58.32
79.65 79.51 80.22 80.46 79.73 79.23 78.58 77.98 76.94 75.34 73.80 72.79 71.68 71.07 67.72 69.24 61.64 63.17 65.63 69.26 70.03 70.26 70.88 70.86 69.81 68.65 68.06 68.81 65.25 63.36 63.27 62.47 62.09 64.19 63.43 64.05 63.67 64.80 64.90 63.53 62.78 60.96 59.17
79.09 79.71 80.09 80.51 79.57 78.63 77.02 76.45 75.46 73.85 73.59 72.10 71.22 70.25 70.25 71.04 61.53 61.15 63.72 68.74 69.96 70.02 70.19 71.32 71.01 70.73 69.88 68.67 67.22 67.41 67.39 67.32 67.17 64.82 65.60 65.10 65.48 64.88 62.69 61.82 61.79 61.01 60.70
77.80 78.90 79.31 79.48 79.15 77.83 76.00 75.29 74.13 73.29 72.74 71.49 70.43 70.36 69.65 72.02 60.37 59.91 63.17 68.21 68.05 69.65 71.07 71.65 70.71 69.33 65.39 62.26 65.27 66.14 65.73 65.79 64.38 61.20 60.58 58.67 57.84 58.31 59.02 59.37 57.99 57.01 56.46
78.06 78.05 79.46 79.53 78.44 76.16 75.73 75.13 74.46 73.00 71.84 71.06 70.03 70.10 66.83 71.38 60.24 58.01 61.31 68.36 68.19 67.46 71.03 71.54 63.22 65.73 58.87 58.76 62.32 64.29 63.76 64.28 64.35 64.38 63.48 61.40 59.63 61.05 58.74 60.75 59.94 57.58 56.61
76.85 77.02 77.93 77.73 77.80 76.75 74.34 74.74 72.77 70.61 70.31 69.86 69.91 69.81 69.50 70.01 69.48 56.72 56.83 68.18 66.82 67.20 69.48 68.86 67.27 57.09 54.72 53.87 55.04 63.36 62.04 60.62 62.41 61.48 60.66 61.10 61.95 61.44 60.46 62.59 63.89 60.10 56.70
78.33 77.59 77.63 77.63 75.81 74.88 74.49 73.81 70.74 70.88 69.29 69.04 68.17 68.27 71.75 72.40 62.84 56.55 55.62 56.15 62.80 66.72 65.52 66.05 65.28 54.00 53.23 51.95 54.27 54.22 52.28 52.82 59.30 59.16 59.35 59.01 57.71 58.21 58.84 59.98 62.25 61.14 60.07
77.31 76.25 76.07 75.70 74.53 74.25 72.86 69.85 67.99 69.54 68.37 67.39 68.18 70.37 70.24 71.73 70.56 55.22 54.72 55.06 56.07 61.92 63.35 54.73 54.71 52.24 50.85 51.66 53.27 53.78 51.60 58.10 58.63 58.76 57.82 57.04 57.34 57.90 61.08 59.89 61.43 62.57 61.99
75.35 73.34 72.63 71.29 71.64 71.51 69.84 69.31 68.22 68.40 68.34 69.66 69.33 68.91 69.57 70.55 68.18 66.84 65.31 59.50 57.05 58.29 56.12 58.68 57.97 56.43 55.08 54.99 57.18 55.76 58.32 59.52 58.90 56.75 55.73 56.72 57.22 56.12 54.76 54.97 53.47 53.64 53.27
72.27 70.64 69.92 69.22 69.78 67.48 62.34 65.65 69.43 63.24 61.45 68.84 68.78 68.65 67.31 65.51 64.53 60.14 59.07 59.96 60.77 59.41 63.08 63.51 61.78 61.24 60.32 60.33 60.38 61.02 58.64 59.61 57.60 57.16 56.13 55.11 54.28 53.85 52.85 53.35 52.42 53.28 52.65
71.17 70.75 69.93 68.82 68.83 68.89 67.04 62.76 45.62 46.75 44.42 45.28 47.24 57.09 59.37 54.07 47.60 43.92 44.30 44.76 46.87 49.79 60.83 60.84 59.86 60.65 60.86 59.24 57.99 57.67 59.17 57.69 56.97 56.59 55.34 54.25 52.77 51.93 51.43 51.38 52.35 51.95 52.24
71.53 71.09 69.64 68.08 69.09 68.72 67.96 66.99 64.86 55.21 44.70 42.85 43.30 44.94 49.03 47.07 43.31 42.68 42.17 42.77 44.32 47.77 58.32 58.80 59.03 61.24 61.61 60.12 58.61 58.25 56.67 56.93 57.80 55.05 54.00 52.79 51.87 51.37 50.81 50.75 51.16 51.13 51.13
70.43 61.92 69.22 68.79 68.16 67.43 66.62 66.12 65.46 63.70 62.08 61.07 47.64 49.57 42.42 42.25 42.05 41.68 41.79 44.91 55.35 52.76 57.73 58.38 59.27 60.79 59.45 58.19 57.48 56.64 56.30 55.92 54.76 53.23 52.02 51.77 51.58 50.76 50.22 50.28 50.56 50.97 50.17
68.96 68.41 68.74 68.06 67.64 65.34 66.11 65.34 65.03 64.49 63.89 62.58 57.22 51.77 46.75 42.01 41.62 42.05 42.78 57.82 59.25 58.73 58.86 58.66 58.30 57.82 57.31 57.18 56.32 55.87 55.02 53.40 50.99 50.23 51.35 51.19 50.83 50.51 50.13 50.34 50.24 47.37 48.53
67.34 62.47 64.30 66.74 65.49 65.24 65.04 64.15 63.82 63.55 61.91 60.67 60.39 59.87 56.62 52.57 55.66 56.64 56.95 58.30 58.85 58.13 58.21 57.23 57.01 57.04 56.21 55.87 55.23 54.01 52.45 51.04 51.61 51.18 50.54 50.40 50.65 50.41 49.84 49.71 49.97 49.80 50.35
66.06 64.85 62.32 65.75 65.42 65.14 64.39 63.90 63.83 63.35 62.57 60.58 60.46 58.84 52.42 58.27 59.28 58.79 58.65 59.25 58.46 58.15 58.31 57.70 57.15 56.90 56.01 55.05 53.43 51.51 50.46 50.58 50.99 50.38 49.78 50.01 50.23 49.48 50.64 50.22 50.13 50.33 50.27
66.15 64.80 64.59 64.40 64.06 63.93 63.46 63.72 63.45 62.68 61.89 61.08 57.35 53.95 47.80 59.65 59.96 59.83 59.30 59.15 58.98 59.13 58.96 58.68 56.92 56.00 55.27 53.38 51.67 50.19 49.99 49.99 50.38 50.20 49.39 49.66 49.95 50.38 50.01 50.12 49.91 50.10 50.04
64.80 62.79 63.57 63.90 63.53 60.37 63.29 63.44 62.97 62.42 61.74 59.63 57.91 58.19 59.34 60.59 59.91 59.56 59.43 58.96 58.58 58.72 59.00 58.34 56.81 55.01 54.46 52.72 50.68 50.15 49.87 50.02 50.04 49.84 49.21 49.35 49.65 49.81 49.81 49.70 49.57 49.57 49.51
63.71 63.60 61.99 62.48 62.39 62.59 62.49 61.35 62.49 56.47 61.90 60.04 59.81 59.70 60.81 60.48 59.97 59.77 60.45 59.68 59.37 58.29 57.71 57.70 55.76 54.23 53.62 51.26 49.80 49.55 49.87 50.52 49.38 49.22 49.45 49.08 49.63 49.18 49.90 49.50 49.22 49.65 49.53
63.91 63.02 61.12 61.18 60.82 61.63 60.59 61.31 60.85 60.46 60.34 60.51 60.05 59.89 58.86 57.10 57.86 58.90 59.80 58.89 58.46 58.10 57.37 57.18 55.60 53.94 52.10 50.36 49.57 48.91 38.19 35.25 43.10 34.78 47.15 48.99 49.75 50.07 49.32 48.93 48.79 49.16 49.47
61.06 60.88 60.45 60.28 60.25 60.99 60.40 59.16 59.65 59.71 58.78 59.44 59.08 58.98 58.95 58.87 58.35 58.53 58.81 57.42 56.21 57.57 57.47 56.62 55.40 53.69 51.80 50.50 49.13 36.63 30.32 33.41 39.60 32.15 42.75 47.08 49.27 49.38 47.77 47.99 48.43 48.35 48.66

GFSGL_sfc_wetblb_024.txt.gz
Wetbulb
78.92 78.94 79.05 78.92 78.98 78.07 77.63 77.40 76.77 77.11 76.66 75.31 74.61 73.46 72.70 72.44 72.86 71.61 70.94 71.79 70.55 70.44 69.67 70.04 70.31 70.63 68.53 67.94 68.69 68.25 67.27 64.75 62.50 64.47 66.03 67.23 67.73 67.80 67.76 68.28 69.21 67.85 66.78
78.62 78.72 78.79 78.94 78.80 78.32 77.18 78.16 77.88 76.78 77.43 76.14 74.36 73.30 72.68 71.98 71.96 70.85 69.87 70.11 69.90 69.47 69.62 69.82 69.66 69.19 68.88 69.14 68.13 67.81 67.42 67.06 65.00 62.87 64.76 65.71 66.28 67.24 68.02 67.92 67.73 67.18 66.76
78.08 78.12 78.58 78.34 78.24 77.88 78.01 77.08 77.68 77.25 76.03 74.28 74.37 73.12 72.60 71.56 71.05 70.83 71.05 70.31 69.43 68.80 69.36 69.41 68.92 69.12 68.74 68.17 68.67 67.49 67.75 67.86 66.58 64.45 63.62 65.77 65.24 67.02 65.27 66.32 65.94 66.29 66.47
77.54 77.43 77.44 77.86 77.86 77.65 77.83 77.67 77.50 77.75 76.07 74.87 74.10 73.35 72.77 72.14 71.12 70.45 70.80 70.66 69.97 69.66 70.90 70.04 69.50 69.33 69.26 68.80 68.96 68.33 67.88 66.78 65.55 64.52 63.16 62.99 63.54 64.83 65.21 62.87 62.44 64.14 63.39
76.27 76.73 77.34 78.30 78.41 78.27 77.48 77.82 77.40 78.03 76.71 75.23 73.67 73.45 73.15 71.92 71.16 69.77 70.16 70.48 69.96 69.43 70.09 70.33 70.14 70.29 69.33 68.51 68.18 67.38 67.01 66.07 64.78 63.57 62.57 62.37 61.52 62.15 61.00 61.92 61.13 61.94 62.47
75.28 75.98 77.17 77.86 78.68 78.09 77.77 77.47 77.62 77.55 77.02 75.58 73.71 73.04 72.48 71.38 65.53 65.08 69.38 70.04 69.77 69.13 68.09 69.45 69.36 69.41 67.67 65.89 65.20 65.07 65.53 65.07 63.79 62.61 62.30 61.67 62.00 62.80 62.48 61.89 60.65 59.28 57.62
76.37 76.43 76.89 77.74 77.89 77.92 78.22 77.31 77.17 76.79 76.29 75.04 73.35 72.78 72.04 71.39 62.80 62.89 65.69 69.92 69.38 69.06 69.53 69.23 69.15 68.51 68.25 69.43 65.49 64.12 63.96 63.44 63.29 63.95 62.32 61.89 62.65 63.02 63.51 61.36 60.46 59.30 57.56
76.48 77.36 77.77 78.02 78.17 78.05 77.76 77.19 76.52 77.02 76.27 73.89 73.17 72.33 71.52 70.48 60.97 61.19 63.84 68.59 67.83 68.25 69.20 69.45 69.37 69.02 69.40 68.99 67.82 67.58 66.89 66.53 64.19 63.60 62.83 63.33 64.52 64.50 63.42 61.02 59.33 58.41 58.36
76.61 78.60 78.11 78.83 78.48 77.99 77.53 77.00 77.05 76.42 75.04 73.30 71.89 70.84 70.05 68.59 60.11 60.12 62.44 65.68 66.32 67.65 69.10 69.49 69.87 68.51 66.64 63.17 66.09 64.84 65.46 65.71 64.94 61.14 63.03 61.25 59.99 58.77 59.35 59.42 56.92 55.44 54.84
77.14 77.24 79.25 79.76 78.83 78.16 77.92 77.29 77.29 75.59 73.74 73.58 72.06 71.21 66.36 67.81 59.08 58.43 61.23 66.70 66.14 66.33 68.65 69.06 63.65 67.08 61.71 59.47 63.48 65.03 63.39 63.86 64.88 64.02 63.35 61.22 59.11 60.20 59.43 59.21 58.48 55.65 55.40
78.72 78.68 79.34 79.09 78.89 78.82 77.77 76.57 75.62 74.04 72.84 72.21 71.06 69.26 68.07 67.03 66.50 56.86 57.24 66.86 66.45 66.81 67.88 67.97 68.48 59.20 56.51 56.13 57.28 63.38 61.35 58.39 61.74 62.19 60.23 59.59 59.98 60.52 60.88 62.54 60.96 59.19 57.19
78.55 78.24 78.57 78.93 77.85 76.97 75.74 73.95 73.99 72.48 70.94 70.47 68.72 67.99 68.12 69.03 62.76 56.27 55.89 57.96 63.51 67.99 68.20 68.25 67.29 54.99 53.88 54.55 54.74 55.16 53.57 54.53 58.73 58.34 57.66 57.85 58.48 58.34 58.58 58.69 58.96 58.32 57.48
77.37 77.48 77.82 77.48 76.95 75.84 74.05 72.16 70.82 70.78 68.49 67.38 67.09 66.49 66.99 71.15 70.47 55.16 54.52 55.74 56.36 65.12 65.76 58.37 53.51 52.77 53.69 52.84 53.64 54.11 54.00 57.14 57.39 57.00 57.42 56.42 56.66 58.02 58.76 57.89 58.61 59.30 59.58
77.11 76.47 75.34 73.03 72.23 71.64 70.12 69.22 68.62 68.36 67.78 67.67 67.44 68.31 69.90 69.70 67.08 64.06 62.37 60.61 57.63 60.36 57.31 56.45 56.16 56.19 55.64 58.11 57.08 54.32 56.68 58.51 59.11 58.00 56.76 56.69 58.08 56.02 54.71 55.00 52.76 52.47 50.53
73.44 72.94 72.27 71.12 70.55 65.13 58.41 60.86 68.48 60.54 61.49 68.62 70.66 69.53 68.05 67.60 66.99 62.50 63.36 65.14 63.73 60.25 58.77 59.75 58.96 58.79 58.51 58.21 59.03 59.46 58.66 58.64 58.11 58.14 57.22 56.23 54.63 54.42 53.14 53.57 52.16 50.14 49.53
70.49 69.85 69.11 69.46 67.99 64.48 61.38 57.81 46.03 46.76 45.10 45.04 48.52 61.26 58.91 53.74 48.27 46.95 44.61 45.73 48.52 52.77 59.83 63.95 61.97 61.28 60.70 58.89 59.11 58.61 58.25 57.98 57.25 58.40 56.99 55.08 53.49 52.46 51.75 51.68 51.27 51.20 49.91
71.12 70.06 68.71 68.06 68.26 67.79 66.74 63.86 58.39 52.02 45.23 43.77 44.07 48.83 49.36 46.54 43.94 43.20 43.28 44.80 48.23 51.96 62.16 61.10 59.44 60.77 59.77 58.85 58.49 57.30 55.52 57.14 57.79 57.14 56.19 54.73 52.61 51.98 50.77 50.67 50.29 50.44 50.07
71.47 62.39 69.41 68.66 67.87 68.28 67.56 67.34 65.19 61.30 59.77 56.67 46.51 48.38 42.75 42.46 42.31 42.23 43.38 48.55 55.87 54.35 58.84 58.19 58.68 59.50 58.99 57.94 56.36 55.94 57.52 56.79 55.59 54.21 52.20 51.41 51.56 51.68 50.41 49.83 50.15 49.27 49.09
69.46 69.03 69.18 67.95 67.61 66.39 67.29 66.66 65.53 64.40 63.34 57.75 54.27 50.23 45.61 42.76 42.74 43.61 44.39 58.34 59.40 59.67 58.45 58.76 60.20 59.39 58.87 58.17 57.99 57.49 56.10 54.88 52.04 51.15 51.09 51.47 52.02 50.25 49.69 49.76 49.45 47.40 47.87
67.60 62.36 66.40 67.27 64.88 66.59 65.87 64.93 65.20 64.16 62.86 60.34 59.57 57.42 54.65 53.06 55.45 56.35 56.61 58.13 59.07 59.99 58.73 58.08 58.26 58.27 57.90 57.23 56.93 56.10 54.57 53.31 52.39 52.78 52.15 51.50 51.36 50.65 48.90 49.05 48.73 48.24 49.09
66.77 66.21 59.58 64.79 64.78 65.08 65.02 64.47 64.43 64.19 63.06 61.86 61.83 59.12 51.81 57.99 58.38 58.75 58.10 58.41 59.98 60.04 59.77 58.76 58.25 58.08 57.85 56.92 56.13 53.82 52.03 51.39 52.10 51.48 50.63 50.05 50.75 49.20 50.36 49.73 49.23 49.16 49.14
65.03 64.67 64.98 64.84 64.39 64.85 64.24 65.15 65.72 63.75 63.50 61.34 62.51 56.10 47.00 58.29 60.37 60.07 59.43 59.24 58.04 60.59 60.09 59.93 58.42 57.74 56.91 54.96 53.33 52.50 51.19 51.14 51.61 50.78 49.74 49.59 49.78 49.53 49.62 48.67 49.24 49.01 49.13
63.33 61.73 60.71 63.08 62.24 58.74 59.95 63.88 60.24 59.63 61.36 61.41 61.18 56.95 56.44 58.74 61.02 59.64 59.56 59.12 57.71 58.03 58.15 58.24 58.74 57.06 56.63 54.37 53.17 52.01 51.04 50.61 50.53 50.27 49.71 49.40 48.86 49.74 49.18 49.00 48.73 48.01 48.29
63.29 61.49 61.32 62.75 64.00 61.86 62.65 61.74 62.33 57.43 60.33 60.95 60.20 60.01 59.24 59.66 58.45 59.87 57.51 59.68 57.08 56.53 56.80 55.69 55.74 56.59 55.40 53.73 52.68 51.28 51.37 50.54 49.36 48.74 47.95 47.39 47.90 48.86 48.73 49.08 48.78 47.97 48.73
62.62 61.91 59.67 59.84 61.05 61.91 60.79 60.70 61.32 61.14 60.99 61.20 58.66 59.30 60.42 61.01 60.06 58.71 58.12 57.43 57.62 57.65 56.80 56.85 55.90 56.67 55.06 53.61 52.64 44.68 35.41 35.77 43.45 36.33 45.75 47.94 47.41 49.32 49.64 47.22 48.45 47.52 49.20
61.50 61.47 61.27 61.30 61.02 61.81 61.02 60.61 60.19 59.32 59.20 59.60 60.50 58.77 60.69 59.04 59.00 59.69 57.25 57.92 58.42 57.76 56.83 56.19 56.73 56.44 54.37 52.27 51.13 36.61 30.90 34.16 39.75 34.25 40.98 44.44 45.96 48.86 48.37 47.38 48.43 47.04 48.07

GFSGL_sfc_wetblb_027.txt.gz
Wetbulb
75.77 75.37 75.92 76.41 75.81 74.79 74.75 73.58 72.88 72.50 72.09 71.62 71.78 71.13 69.86 69.91 69.69 68.56 66.36 66.37 66.95 65.81 66.01 65.19 65.46 65.11 63.34 63.31 65.04 64.07 62.31 60.79 57.94 59.89 61.79 62.45 64.38 63.28 64.82 63.99 64.90 64.35 64.28
76.35 76.24 75.56 75.80 76.39 75.22 74.33 73.88 74.32 72.31 72.76 72.47 71.93 71.32 70.03 69.18 69.59 68.46 66.57 67.39 66.63 66.11 65.26 64.22 64.38 66.54 63.44 63.55 63.98 62.90 62.99 62.35 61.15 58.57 60.34 61.27 61.74 62.16 63.11 63.68 64.61 66.02 63.89
76.23 76.43 76.10 75.58 75.87 75.83 74.79 74.74 74.74 73.74 72.74 72.59 72.40 71.19 69.95 69.56 69.26 68.40 67.14 66.05 66.75 66.68 66.17 65.40 65.38 66.14 63.91 64.50 64.44 64.54 64.33 64.26 62.82 61.15 60.09 61.67 62.03 61.92 62.39 61.81 62.07 62.38 64.07
76.32 76.09 75.77 75.75 76.10 76.22 76.13 74.83 74.55 74.88 73.25 72.14 71.85 71.02 70.16 69.66 69.26 68.37 67.35 66.80 66.73 66.08 65.70 66.57 66.51 66.36 64.85 63.98 63.73 63.81 63.85 63.34 62.33 61.56 60.21 60.19 60.24 61.03 61.19 59.41 58.07 60.10 60.38
75.53 75.40 75.24 76.10 76.46 76.37 75.99 75.88 74.50 74.48 74.33 72.67 71.40 70.71 70.31 69.60 69.33 67.94 67.66 67.67 66.91 65.95 66.06 67.24 67.24 67.28 67.91 66.61 64.94 63.76 63.49 61.91 61.53 60.60 59.63 59.73 58.96 58.04 57.42 58.37 58.02 58.25 58.97
74.50 74.62 75.41 75.32 75.96 75.81 75.62 75.53 75.36 74.16 74.68 72.87 70.78 70.77 70.03 70.50 66.55 66.05 67.62 67.04 67.07 66.46 65.44 66.31 67.06 68.59 67.51 66.66 66.18 65.12 64.97 62.35 60.60 59.27 58.83 58.61 58.63 58.91 59.08 58.24 57.15 55.21 54.03
72.66 74.28 74.62 74.81 75.01 75.42 75.59 74.93 74.95 74.31 74.82 73.84 71.73 70.37 70.17 70.15 64.05 64.53 66.29 67.00 66.75 66.30 65.95 67.02 67.17 67.51 66.97 65.48 63.94 63.66 63.53 63.44 63.17 60.91 58.98 58.63 58.22 59.32 59.11 57.42 56.57 55.97 55.03
72.05 72.78 74.10 74.54 74.82 75.63 75.62 74.78 74.58 75.11 74.63 73.97 72.21 71.36 70.66 70.29 63.01 62.26 64.62 65.56 66.15 66.20 67.93 67.81 66.93 66.11 64.81 64.43 63.65 63.37 63.58 63.54 62.01 62.38 60.27 61.04 60.31 61.30 60.45 59.23 57.78 55.30 54.74
71.68 72.13 73.88 74.59 74.75 75.43 75.23 75.01 74.74 74.58 73.65 73.20 72.61 71.67 70.85 67.49 59.97 60.07 61.94 64.51 63.96 64.35 65.31 66.94 66.37 64.81 64.43 62.35 63.26 62.07 61.60 62.41 64.09 61.73 61.80 61.03 60.64 61.07 60.44 56.45 54.31 51.60 50.64
71.60 73.18 73.84 74.57 74.83 75.34 75.37 75.16 74.78 74.42 73.91 72.57 70.98 70.63 66.57 66.69 59.50 57.92 60.30 63.58 62.77 63.63 64.57 66.19 63.41 64.84 61.24 60.23 62.76 62.43 60.20 60.77 60.67 59.28 58.85 59.29 58.49 57.78 59.43 56.95 56.42 52.15 51.51
74.16 74.57 75.17 75.78 75.93 76.04 75.49 75.38 74.82 73.39 72.06 71.61 70.34 69.35 68.34 66.57 62.23 56.44 57.16 64.58 64.22 64.22 64.49 64.86 64.66 59.41 57.17 57.35 58.74 61.57 60.33 56.27 57.42 56.58 56.63 56.22 55.81 55.84 58.10 59.40 58.31 55.35 52.90
75.01 75.60 76.38 76.53 76.54 76.31 75.42 73.84 72.29 71.45 71.10 69.45 68.52 67.54 67.40 66.82 61.40 56.27 55.57 58.09 63.18 64.76 63.70 64.31 62.84 56.09 54.82 55.72 56.23 54.76 53.03 54.14 54.86 54.45 52.88 52.48 52.99 53.32 55.19 54.45 54.90 56.63 56.39
75.45 75.74 75.78 75.62 75.66 74.36 72.52 71.28 70.46 68.91 68.63 67.54 67.09 66.51 66.40 67.29 65.44 56.73 54.83 55.91 57.39 61.32 62.51 59.84 54.24 51.35 52.90 52.78 54.27 53.00 54.25 52.64 52.46 51.98 51.67 52.16 51.18 53.09 51.49 50.67 50.47 49.42 49.40
74.78 73.78 72.20 71.68 70.87 70.74 70.47 70.08 68.50 67.33 66.82 66.55 65.90 65.67 65.68 65.81 61.36 59.11 57.84 56.99 57.09 59.11 56.51 55.30 54.63 54.61 53.64 54.51 52.92 52.34 51.64 52.25 53.34 52.94 51.97 51.19 51.32 49.02 48.39 48.58 46.55 45.90 43.68
71.24 70.16 69.86 68.01 63.56 58.98 53.20 57.82 65.29 57.23 63.38 66.89 66.43 66.16 65.62 64.27 62.14 58.72 58.38 60.11 59.39 57.29 56.05 54.73 53.10 52.99 52.15 52.72 53.30 53.06 52.86 53.94 55.13 54.61 52.68 49.93 48.01 47.74 47.16 46.07 45.37 43.30 41.97
68.66 68.87 66.30 64.54 62.12 60.11 57.46 53.92 46.44 45.77 45.14 46.97 52.45 60.63 54.38 53.35 50.83 48.47 50.28 52.10 52.10 50.86 55.43 55.93 54.21 54.23 53.97 53.81 53.38 54.03 56.82 57.11 55.55 55.14 51.12 48.30 47.25 46.73 44.40 44.86 44.17 43.22 43.25
67.56 67.56 66.22 63.86 62.74 61.44 60.30 57.64 54.06 51.55 46.10 43.78 44.18 48.37 50.73 48.65 47.09 44.40 43.41 45.41 47.74 51.11 55.14 55.81 55.20 53.47 54.78 55.77 55.44 56.43 55.31 55.61 54.61 51.51 48.75 46.48 44.49 43.99 45.12 43.89 43.22 43.37 42.90
67.43 61.40 66.90 65.62 64.33 63.10 61.42 59.16 56.83 56.77 55.34 53.41 44.84 45.63 42.65 42.63 43.00 42.98 43.95 48.45 50.97 50.20 52.58 52.16 51.95 53.32 54.46 54.37 51.54 51.07 49.61 50.16 47.00 44.06 43.07 42.96 42.76 44.11 43.13 42.61 42.72 41.84 41.56
67.04 67.06 66.77 66.77 66.34 64.43 64.44 61.37 58.48 57.97 55.29 52.01 48.05 46.15 42.66 42.07 42.56 43.68 45.55 52.71 52.39 51.89 51.03 51.73 51.62 50.95 50.63 50.51 50.27 49.04 47.55 45.13 43.55 42.75 41.92 43.66 45.00 42.18 41.59 42.07 42.91 44.58 44.25
61.98 61.92 63.48 63.77 63.73 64.81 64.04 62.92 61.04 59.41 54.91 52.83 51.98 50.99 47.60 47.10 48.78 49.26 50.08 51.07 51.60 52.44 51.19 50.21 50.25 49.99 49.59 49.34 48.50 46.94 45.82 45.10 44.22 44.39 43.66 43.51 42.48 41.93 41.68 42.70 42.31 41.82 42.15
62.46 60.93 60.95 62.42 60.63 61.12 59.72 59.47 61.49 59.14 56.59 55.57 55.22 52.43 47.94 51.80 51.68 51.37 50.81 51.96 52.19 52.63 50.85 50.76 50.03 49.75 49.31 48.52 47.61 45.68 44.00 43.43 43.13 42.76 41.37 41.30 42.11 42.03 42.76 42.21 42.20 43.15 42.23
61.52 60.67 61.03 60.46 60.64 60.45 60.35 60.08 61.45 60.74 58.64 57.38 56.25 52.05 46.19 52.52 53.56 53.59 53.21 53.22 54.34 53.98 53.41 52.18 50.78 49.75 48.20 45.78 44.85 43.56 42.05 42.76 42.81 41.79 41.72 41.97 41.89 42.41 42.49 41.80 42.69 42.25 41.53
61.11 60.46 60.15 59.91 59.71 58.79 58.44 57.98 58.35 59.07 59.33 58.56 56.70 52.78 50.89 52.48 53.99 54.93 54.82 56.12 54.74 53.31 54.76 54.26 52.57 49.73 47.63 45.28 44.08 43.25 42.02 42.43 42.22 42.63 41.92 41.34 40.94 41.58 42.07 41.69 42.10 41.15 40.21
60.14 60.28 59.55 59.43 59.45 59.36 58.99 57.78 58.08 55.97 57.61 57.38 55.08 53.47 53.28 53.74 55.15 55.47 56.25 55.21 53.85 54.61 54.28 53.69 53.00 50.06 47.12 44.64 43.06 42.08 43.19 41.52 41.25 40.18 39.56 38.97 39.70 40.88 42.19 42.35 40.48 41.20 40.85
60.16 59.07 58.97 57.78 57.63 57.57 57.43 58.16 57.07 56.08 56.58 56.42 55.40 55.11 55.71 55.41 56.49 55.50 56.37 55.61 55.01 54.40 53.29 53.35 51.48 49.06 46.94 44.88 41.15 37.57 35.89 36.42 36.58 36.25 38.32 39.30 38.75 39.74 41.00 39.98 39.85 40.93 41.09
58.37 59.35 58.51 57.50 57.64 58.19 57.66 56.36 55.28 55.69 55.92 57.06 56.58 56.97 55.76 55.69 55.33 55.77 53.75 52.74 52.96 52.02 51.70 51.35 51.02 49.54 47.34 43.74 40.55 35.17 31.79 34.35 35.28 34.16 34.89 35.53 36.92 38.88 41.36 40.48 40.91 41.41 40.92

GFSGL_sfc_wetblb_030.txt.gz
Wetbulb
72.97 73.26 73.21 73.24 72.74 72.70 73.61 72.64 71.92 69.74 70.18 69.44 70.36 69.34 68.60 67.13 66.47 66.82 65.23 65.58 64.54 64.69 64.92 63.22 63.09 63.28 62.72 61.42 62.92 61.63 60.56 59.49 57.30 57.94 59.79 61.02 62.38 61.76 62.68 63.43 63.77 62.64 63.46
73.79 73.80 73.38 73.58 73.51 72.90 72.46 73.68 72.54 71.86 70.42 70.56 70.15 69.75 69.35 68.26 67.22 67.49 65.86 65.88 65.40 64.40 64.45 63.84 63.17 65.47 62.96 61.53 62.93 61.60 60.77 61.05 59.55 57.59 58.99 60.13 60.74 61.59 62.00 62.00 63.83 64.96 63.61
73.80 73.68 74.04 74.08 73.98 73.73 73.08 73.08 73.15 72.04 71.31 70.71 70.32 69.98 69.20 68.95 68.20 67.89 67.13 65.73 64.96 65.38 65.01 63.98 63.35 62.67 64.08 62.27 62.37 62.26 62.55 62.74 61.14 59.73 59.54 60.55 60.86 61.94 61.06 61.35 61.76 61.93 62.81
74.19 73.58 73.23 73.81 74.72 74.69 74.13 73.28 73.08 73.28 70.84 71.06 70.59 70.31 69.91 68.98 68.73 68.50 67.29 65.75 65.27 65.65 65.65 65.32 64.28 64.01 64.53 63.68 63.99 64.36 62.17 61.00 60.50 60.01 59.43 59.27 59.55 60.35 59.76 59.10 57.36 58.34 59.27
74.11 74.20 73.68 74.13 74.61 75.09 74.85 74.03 73.37 73.13 73.20 71.32 70.92 70.40 69.88 69.12 68.55 68.09 67.37 66.36 65.30 65.07 64.91 65.41 65.65 66.60 66.97 65.10 64.11 63.70 62.45 61.75 60.74 59.36 58.74 58.30 58.40 58.13 57.47 57.65 57.35 57.69 57.91
74.00 74.04 74.61 74.63 74.39 74.40 74.90 74.97 73.65 73.39 72.94 71.81 70.59 70.21 68.86 69.65 65.79 65.76 67.44 66.62 66.51 65.57 64.56 64.64 65.36 67.76 67.21 65.67 65.16 64.68 63.80 61.74 60.01 59.69 58.14 57.44 57.45 57.61 58.24 57.80 56.58 54.73 53.70
73.76 74.10 74.24 74.56 74.38 74.68 74.85 74.58 74.36 73.14 73.04 71.93 70.31 69.96 69.10 69.54 63.44 64.08 66.16 67.24 66.90 66.67 65.63 64.93 65.29 67.39 66.65 65.92 64.36 63.72 63.00 63.05 63.07 61.78 59.04 58.89 57.57 58.41 57.99 56.77 56.02 55.31 54.85
73.10 73.61 74.23 74.16 74.23 74.68 74.59 74.35 74.43 74.35 72.82 72.63 71.00 70.30 70.01 69.82 62.31 62.35 65.05 67.92 67.32 67.06 66.12 65.56 65.40 65.56 65.90 64.66 64.90 63.20 63.62 63.02 62.33 62.40 61.19 61.76 60.08 60.05 59.30 58.78 57.65 55.70 54.52
71.98 72.67 73.72 74.21 73.70 74.25 74.16 74.14 74.13 74.28 73.47 73.41 72.24 70.70 69.96 69.99 61.12 60.75 63.81 66.52 66.72 66.45 66.83 66.97 67.30 65.33 63.15 61.56 63.56 61.75 61.19 61.74 62.80 60.95 60.94 60.94 60.08 60.35 60.54 57.48 56.23 53.57 52.52
70.62 71.51 73.35 74.01 73.98 73.51 74.33 74.25 74.43 74.53 73.85 73.68 72.44 71.60 68.73 69.76 59.48 58.31 63.64 65.91 65.18 64.94 63.20 64.49 62.30 64.50 60.33 58.93 62.58 61.07 59.83 60.89 60.27 58.63 58.19 58.18 58.37 58.30 59.40 57.80 55.63 52.67 50.97
71.03 71.42 71.75 73.50 73.64 74.12 74.75 74.95 74.40 74.04 73.60 73.33 71.36 70.93 69.62 66.95 61.13 56.67 57.71 64.01 63.97 62.22 62.56 63.47 64.82 59.18 55.83 54.58 57.08 60.91 59.30 58.06 58.09 54.65 54.00 53.93 53.67 53.88 54.51 55.89 57.14 55.68 53.13
70.16 70.28 71.03 72.47 73.72 74.17 74.93 74.89 73.93 73.63 72.29 70.48 68.68 68.20 67.98 66.12 60.32 54.49 55.46 57.64 61.15 62.24 63.03 64.78 63.22 56.17 52.77 53.13 56.57 56.68 55.76 55.89 53.42 52.43 51.22 51.13 51.78 50.71 51.17 51.72 51.93 55.55 57.04
70.35 71.11 72.09 72.91 73.75 74.83 74.76 74.24 72.66 71.97 70.69 68.49 68.16 66.98 66.15 66.33 62.75 55.52 53.84 55.12 58.00 62.81 65.00 61.09 54.20 51.68 52.04 54.56 56.09 55.16 53.12 52.18 51.09 50.22 50.21 50.75 50.72 50.06 49.56 48.45 48.46 47.14 46.72
71.66 73.97 74.90 74.68 74.49 74.79 74.18 73.37 71.57 69.78 68.52 67.79 66.59 65.85 65.42 66.30 64.20 60.60 58.20 56.51 56.92 60.03 57.74 56.82 55.07 54.27 54.52 55.54 53.27 52.56 51.98 50.94 50.52 50.67 50.92 51.06 49.96 47.31 46.74 46.62 44.69 44.02 41.77
73.99 73.92 72.81 71.23 67.84 59.61 57.96 65.01 68.00 62.11 67.00 67.03 66.64 66.47 65.57 64.30 61.89 57.98 57.16 59.15 59.99 58.29 56.80 56.44 54.53 53.21 52.71 52.06 52.08 51.84 50.89 50.46 51.29 51.79 51.26 50.41 47.66 46.27 45.79 44.16 43.22 41.78 40.14
68.47 67.41 66.19 63.79 61.44 60.76 59.31 55.85 49.48 48.81 52.04 52.40 55.85 61.35 57.44 57.12 50.23 48.42 46.97 47.51 48.24 50.37 56.10 53.57 52.58 52.33 52.33 51.94 51.24 51.40 51.83 52.94 51.43 52.32 51.75 48.17 45.92 45.49 43.01 42.42 42.10 40.57 39.88
66.31 64.66 63.59 63.07 62.50 61.74 60.67 59.81 56.72 54.13 49.10 44.63 45.52 48.05 51.32 50.77 46.79 45.33 45.33 45.52 46.06 51.25 54.73 54.55 53.63 53.31 53.20 53.37 52.36 51.87 52.47 53.34 53.31 50.10 46.96 45.00 43.12 42.08 42.51 41.82 40.61 40.42 40.80
65.02 58.75 63.66 63.30 62.37 62.08 61.81 59.10 58.73 59.50 57.10 52.68 45.19 45.97 45.30 44.97 44.45 43.69 44.18 47.59 51.66 51.08 53.31 53.20 51.91 51.94 52.13 52.44 52.41 50.37 48.15 45.08 43.34 42.32 41.94 43.38 41.85 42.22 41.26 40.11 39.69 39.83 39.48
66.28 64.99 63.94 63.48 62.26 60.19 59.36 58.47 57.54 56.73 55.43 50.67 48.83 46.56 43.33 42.05 42.30 43.08 46.26 52.62 51.51 50.93 49.17 49.34 50.32 50.61 49.09 48.70 47.70 46.71 45.91 44.33 43.00 41.46 40.09 41.51 42.11 40.55 39.35 39.41 40.79 42.67 41.97
64.32 61.82 63.68 64.17 62.64 61.29 59.82 58.44 57.09 55.14 53.36 53.35 54.06 51.36 46.35 48.54 50.04 49.74 50.64 51.50 51.63 51.08 50.87 48.69 48.78 48.41 48.28 47.79 46.35 45.30 44.34 43.46 41.97 41.18 41.92 41.71 40.55 39.51 39.56 40.26 40.06 39.28 40.08
61.38 62.18 61.21 63.27 63.66 63.05 60.96 59.32 58.10 55.29 53.92 52.45 52.59 50.43 46.42 53.38 51.01 50.96 50.08 49.30 50.34 49.84 49.10 49.29 48.07 47.84 47.67 46.73 45.21 44.05 42.61 41.62 40.88 41.11 40.00 39.60 39.60 39.64 40.05 39.64 39.47 40.56 39.79
60.24 60.30 60.99 60.52 60.20 59.99 60.74 60.76 59.21 56.96 55.20 54.38 53.67 49.88 44.19 51.37 51.30 50.94 50.19 50.56 51.34 51.43 50.32 50.22 48.83 48.38 47.91 47.54 45.74 43.64 41.32 41.52 40.88 40.06 39.85 39.76 39.55 39.95 40.04 39.79 40.09 39.97 39.26
58.63 58.46 58.38 58.21 58.42 57.82 58.55 59.30 59.60 58.47 57.40 56.21 54.43 51.53 49.25 50.64 51.63 51.54 51.93 51.97 52.28 51.69 50.90 50.31 49.85 46.40 44.73 44.15 43.08 42.41 41.21 40.90 40.78 41.10 40.61 39.71 38.70 38.55 39.55 39.54 39.69 38.63 38.25
59.42 58.77 58.39 57.92 57.88 57.62 57.14 57.16 58.86 56.53 58.16 57.04 55.46 52.61 51.49 52.21 52.34 53.46 53.87 53.44 53.15 53.76 52.39 53.11 51.21 47.76 44.83 42.95 41.43 40.77 41.38 41.34 40.91 40.76 39.87 37.89 37.32 37.79 38.24 38.63 38.51 37.99 38.69
60.33 59.51 59.20 58.34 58.06 57.94 57.08 58.12 58.07 58.22 58.92 57.76 55.84 53.50 52.46 52.53 52.76 54.04 54.34 54.12 53.94 53.46 53.57 52.48 49.90 47.62 45.07 43.02 41.09 41.32 38.01 36.75 37.54 35.52 36.50 37.70 37.35 37.09 37.85 38.72 37.51 38.33 39.06
60.57 60.14 58.46 57.07 56.20 55.79 55.81 55.75 55.48 55.40 55.75 55.95 53.96 53.11 53.57 53.53 53.61 53.67 53.61 52.12 51.23 52.25 51.42 49.32 48.04 46.97 45.03 42.47 40.57 37.40 32.94 33.73 35.69 34.36 35.05 34.46 34.58 36.32 37.28 39.23 38.78 38.56 38.56

GFSGL_sfc_wetblb_033.txt.gz
Wetbulb
71.11 71.35 71.69 71.83 72.07 72.15 71.66 70.98 70.11 69.41 69.00 69.07 69.74 68.82 67.30 65.16 66.63 65.99 64.67 64.02 63.20 63.36 63.29 62.42 62.21 61.74 61.25 60.96 61.77 60.54 59.52 57.67 56.02 57.34 58.75 60.26 60.92 60.84 61.60 62.57 63.83 62.46 62.29
71.52 71.43 71.28 71.41 71.17 71.50 72.35 72.04 71.06 69.35 69.27 68.77 69.36 68.65 68.02 66.86 65.12 66.66 65.39 65.51 63.98 62.77 63.18 63.01 62.50 63.60 61.81 62.11 62.20 61.38 59.50 59.72 58.22 56.86 57.79 59.17 59.77 60.80 61.20 61.05 62.40 64.14 63.10
71.11 71.63 71.54 71.50 71.53 71.08 71.42 72.30 72.14 70.89 69.15 69.17 69.03 68.95 68.18 67.51 66.08 65.91 66.43 65.45 64.95 64.50 63.29 63.32 63.15 62.53 61.74 62.56 62.24 61.86 61.91 61.36 59.91 58.72 58.68 59.31 59.93 60.64 60.22 60.66 61.29 61.40 62.50
71.09 71.16 71.28 71.44 71.77 71.90 71.84 71.19 72.22 72.54 70.96 69.20 69.21 69.33 69.05 68.64 67.51 66.82 66.26 65.84 65.23 64.94 64.63 64.13 63.49 63.01 62.08 62.65 62.24 61.75 61.84 61.47 59.89 58.98 58.50 58.56 58.76 59.41 58.81 58.45 58.15 57.77 58.37
71.01 71.33 71.28 71.93 72.34 72.50 72.27 71.89 71.80 72.07 72.10 70.99 69.48 69.18 69.42 68.76 68.76 67.47 66.88 66.03 65.22 65.23 64.68 64.92 64.65 64.94 65.53 63.79 62.95 62.51 62.70 60.86 61.38 58.94 57.78 57.24 57.84 57.52 57.47 57.64 56.52 56.74 57.44
71.27 71.57 72.09 72.28 72.67 72.73 72.89 72.76 72.14 71.69 71.78 70.66 70.07 69.57 68.99 69.16 65.63 65.45 67.73 66.85 65.85 65.31 64.76 64.48 64.98 66.77 66.10 64.97 64.66 64.28 63.57 61.64 61.13 58.93 57.84 57.44 58.55 58.47 57.58 56.96 56.52 55.18 54.40
71.76 72.08 72.20 72.11 72.18 72.59 73.39 73.16 72.46 71.59 71.74 70.79 70.32 70.07 69.19 69.46 63.30 63.42 66.18 67.52 66.09 65.68 65.50 66.01 65.45 66.56 65.47 65.61 63.93 63.76 63.47 63.14 62.97 60.19 58.86 59.15 59.23 59.18 58.17 57.67 55.48 54.96 54.46
71.67 72.15 72.64 72.47 72.19 72.59 72.66 73.16 73.32 72.80 71.86 71.56 70.23 70.30 69.64 69.48 62.21 61.71 64.83 67.79 66.43 66.93 66.97 66.28 65.83 65.79 64.75 64.57 63.58 62.81 63.17 62.83 61.98 62.67 61.53 61.47 60.06 61.27 58.89 58.17 56.86 55.28 54.60
71.12 72.00 72.62 73.29 72.86 72.77 72.67 72.82 73.39 73.69 72.77 72.34 71.47 70.02 69.82 69.58 60.39 60.10 63.06 67.35 66.90 66.83 67.26 66.95 66.57 65.38 62.47 61.62 63.17 62.23 62.43 61.96 61.98 60.41 60.40 60.20 60.42 60.39 59.96 57.44 55.83 53.54 52.12
71.29 71.97 72.79 73.44 73.40 73.09 73.39 73.36 73.61 74.01 73.68 73.14 72.27 71.36 68.42 70.11 58.82 58.55 62.78 67.54 66.60 66.51 66.63 66.63 62.92 64.08 59.07 58.47 62.74 62.31 61.24 59.37 59.55 58.70 58.22 57.69 57.09 56.13 58.70 57.58 55.82 53.11 50.11
71.48 72.67 72.78 73.48 73.24 73.57 73.59 73.91 73.75 73.82 73.71 72.96 72.60 72.43 70.56 69.73 62.06 56.86 59.82 67.22 66.95 65.98 65.65 62.42 62.54 58.10 55.85 54.95 57.60 61.49 60.27 58.70 58.96 56.82 54.55 52.98 52.27 52.47 52.66 52.62 54.24 53.46 50.72
70.24 70.48 72.08 72.54 73.42 73.48 73.16 73.55 73.85 73.80 73.31 72.55 72.76 71.03 70.62 67.19 59.13 55.73 58.15 61.08 62.09 64.27 61.11 61.65 62.16 56.78 52.39 51.50 54.38 54.74 55.11 57.28 55.26 53.21 51.25 50.08 50.65 51.35 49.79 50.31 49.22 51.43 53.92
67.97 68.86 69.64 71.23 72.52 73.25 72.88 73.25 73.54 73.49 72.90 72.30 70.87 68.93 67.34 66.60 62.25 55.59 55.65 55.34 57.51 61.33 62.17 61.09 55.65 51.50 49.67 52.77 54.54 54.91 54.54 54.17 52.21 50.39 49.42 49.39 50.63 49.43 48.90 47.13 47.22 45.16 44.56
66.27 67.36 68.57 69.06 70.81 72.45 73.18 73.70 73.60 73.03 72.41 70.33 68.93 67.62 66.53 65.85 65.47 61.42 58.91 58.19 57.28 60.20 56.76 56.94 56.42 55.98 55.09 56.10 54.77 53.62 54.05 51.96 50.76 49.63 49.43 49.97 49.79 47.94 45.93 45.68 43.87 42.44 40.88
66.51 66.22 68.06 69.54 69.53 64.59 56.90 66.58 73.22 66.35 70.03 68.88 67.70 67.28 65.92 65.21 64.08 57.93 57.82 59.00 61.18 58.27 57.16 57.36 56.80 54.49 54.76 52.82 52.17 51.63 50.76 50.65 50.50 49.80 50.25 49.85 48.77 45.84 45.23 43.50 42.01 40.82 39.39
68.97 66.40 64.06 62.79 61.64 60.88 60.60 58.29 51.30 54.22 54.40 54.58 55.49 62.01 62.27 56.40 50.23 48.60 45.88 48.06 48.96 50.41 57.64 57.58 56.94 55.56 53.25 52.39 51.59 50.89 50.18 52.03 49.71 49.80 50.20 49.85 47.65 45.02 43.72 41.26 41.09 39.49 38.25
63.53 63.21 63.16 62.45 63.75 63.96 62.77 62.84 61.54 58.03 52.59 49.14 46.97 49.14 53.86 52.77 45.88 44.25 45.16 44.98 46.79 52.09 57.68 56.08 53.75 52.62 52.11 52.07 51.39 50.88 51.00 51.67 51.43 51.09 49.95 47.03 45.38 42.13 41.02 40.92 39.28 38.74 38.97
63.73 58.21 64.34 64.74 65.51 63.30 62.33 61.39 62.23 61.88 62.55 57.62 47.82 48.02 45.52 44.43 44.43 44.25 43.53 47.46 54.77 54.24 53.93 53.83 53.03 53.05 52.87 52.31 52.21 51.54 50.64 47.89 46.67 44.74 42.21 41.18 40.38 40.47 40.48 38.67 38.23 38.06 38.06
64.19 63.87 64.23 64.68 63.69 62.11 62.38 62.06 62.41 62.56 60.50 54.61 51.27 47.46 44.15 42.77 42.98 43.89 46.39 58.16 56.92 53.19 51.84 51.54 51.25 50.94 51.04 50.49 49.53 47.62 44.87 43.07 42.34 41.14 39.82 40.96 41.47 39.89 38.39 38.24 38.77 42.03 40.82
64.18 60.66 61.64 61.40 59.71 59.86 59.67 59.26 58.72 56.94 56.26 57.66 58.24 52.90 48.99 51.65 53.93 53.18 52.21 53.18 53.61 51.93 49.77 49.05 49.22 49.20 48.34 47.37 45.98 45.02 43.67 42.42 41.12 40.35 39.74 39.66 39.79 38.69 38.42 38.98 38.40 38.02 38.48
62.91 62.69 60.82 61.74 60.44 59.96 59.58 59.07 57.22 57.03 56.32 57.10 57.06 52.92 48.82 55.85 53.56 52.67 52.57 51.79 50.88 50.54 48.62 48.99 48.37 47.95 47.40 46.10 45.18 44.35 43.35 42.10 40.50 39.91 40.55 39.00 38.68 38.33 38.64 38.37 38.04 38.77 38.04
59.91 60.48 61.79 61.11 60.41 58.96 58.57 57.77 56.44 55.28 55.08 53.96 50.72 47.49 44.61 53.54 53.68 52.35 50.58 50.06 50.29 50.04 50.35 49.47 48.54 48.18 48.23 47.13 45.42 43.69 42.00 40.88 40.29 39.67 38.69 38.62 38.54 38.95 38.89 38.70 38.52 38.34 37.35
58.45 58.57 58.12 58.10 58.68 57.38 58.70 57.91 55.44 53.91 53.39 53.11 52.18 50.37 49.45 50.83 51.29 51.27 50.43 49.89 50.19 49.66 48.95 48.69 48.38 47.22 47.15 46.71 45.75 44.51 41.58 40.85 41.04 39.91 39.46 38.95 38.28 37.90 38.24 37.95 38.26 37.00 36.41
58.11 57.61 57.88 57.13 57.06 57.46 58.03 57.80 57.14 53.64 55.80 54.23 53.41 51.45 50.85 50.64 51.26 51.10 50.71 50.77 50.70 51.18 49.61 48.93 48.93 50.13 46.27 43.67 42.59 41.55 41.16 40.92 40.24 40.29 39.96 38.83 36.90 37.38 37.19 37.23 37.68 36.60 37.10
57.94 58.84 57.98 58.00 57.79 57.16 57.01 57.61 58.06 58.52 58.68 57.31 55.62 53.25 51.64 50.70 50.95 51.87 52.10 51.99 51.69 50.87 50.36 50.24 49.78 47.32 44.84 43.61 41.58 40.36 38.66 37.24 39.54 37.69 36.93 36.18 35.82 35.76 35.96 37.44 37.55 36.97 37.36
60.08 59.72 58.86 58.58 58.01 57.64 57.33 57.53 57.53 58.36 58.61 57.79 57.10 54.87 52.90 51.20 51.25 51.91 52.83 52.38 51.83 51.37 50.76 50.20 48.29 47.04 45.53 43.50 41.76 39.20 33.46 34.77 36.32 33.74 35.40 35.41 34.61 33.93 36.04 38.12 38.60 37.57 36.71

GFSGL_sfc_wetblb_036.txt.gz
Wetbulb
70.78 71.45 71.40 71.48 71.65 71.87 71.15 71.12 70.78 71.02 71.48 71.38 71.59 71.33 70.13 68.43 67.83 67.20 66.65 66.34 65.99 66.13 65.61 64.64 64.82 65.37 64.23 64.56 64.35 63.79 62.02 60.96 60.69 62.36 62.41 64.93 65.92 66.12 66.17 67.23 66.84 67.11 66.66
70.47 71.17 71.25 71.60 71.75 71.35 71.25 71.72 71.48 70.62 70.91 71.07 71.27 70.94 70.13 68.90 68.15 67.49 66.63 66.61 65.89 65.48 65.75 65.04 64.86 64.49 64.80 64.88 64.48 64.53 64.05 63.36 62.80 62.66 62.71 63.41 64.68 65.51 66.10 65.72 65.73 66.10 66.90
70.10 70.79 71.06 71.32 71.30 71.27 71.54 72.07 71.80 70.99 70.52 70.32 70.78 70.37 70.04 69.18 67.38 68.32 67.75 67.22 66.69 66.44 66.06 65.63 65.62 65.15 64.73 64.55 64.52 64.77 64.62 64.11 64.17 62.38 62.82 63.49 64.33 64.52 64.42 64.92 65.34 66.23 65.59
70.11 70.39 70.24 70.83 71.06 71.50 71.95 72.31 72.31 71.77 70.43 70.05 70.08 70.60 70.23 69.65 68.71 67.73 67.91 67.50 67.28 66.96 66.79 66.17 65.85 65.53 65.25 65.08 64.84 64.95 64.90 64.67 63.78 63.58 62.83 62.42 63.06 64.10 62.90 62.27 62.66 62.81 63.14
69.66 69.77 70.29 70.82 71.16 71.38 71.35 71.70 72.38 72.56 71.56 70.38 70.20 70.05 70.33 69.71 69.15 68.44 67.83 67.63 67.15 66.99 67.16 66.86 66.52 66.61 66.00 65.26 65.35 65.24 65.54 65.00 64.27 63.69 61.95 60.00 61.94 62.27 61.79 61.24 61.14 60.92 62.28
69.54 69.34 70.40 71.05 71.25 71.28 71.49 71.32 71.25 72.00 72.33 71.61 70.05 70.11 69.62 69.61 66.02 65.13 67.97 67.71 67.55 67.10 66.58 66.75 67.39 66.64 66.17 64.27 64.22 64.22 65.71 65.61 64.69 64.19 63.93 60.98 62.77 62.37 61.38 61.66 61.18 61.33 60.47
69.67 70.02 70.21 70.85 71.01 71.30 71.84 71.85 71.22 70.84 71.74 71.88 71.18 70.48 69.91 70.13 63.19 63.47 65.68 68.91 68.08 67.51 67.47 67.33 66.62 67.35 66.28 67.14 64.12 63.53 63.51 63.34 64.71 66.33 64.49 62.27 63.14 62.48 63.45 62.06 61.64 61.17 60.74
69.73 69.88 70.72 70.93 70.93 71.52 71.62 71.81 71.89 71.74 71.31 71.41 71.04 71.39 70.78 70.63 62.25 61.79 65.04 69.38 68.66 68.17 67.81 67.40 67.46 66.97 66.66 66.42 67.04 66.37 66.28 66.17 65.62 66.02 64.60 65.70 65.19 64.51 64.44 64.09 62.74 61.76 61.28
69.92 70.21 70.83 71.60 71.13 71.40 71.53 71.97 72.40 72.27 71.94 71.59 71.91 71.18 70.79 71.06 60.98 60.59 63.20 68.94 68.12 67.65 67.62 67.64 67.49 67.15 63.73 61.90 66.31 66.15 65.97 65.71 62.32 61.24 61.37 60.81 60.63 60.70 62.60 62.46 60.80 59.54 58.42
70.38 70.94 71.65 72.09 71.80 71.40 71.69 72.08 72.98 73.23 72.69 72.56 71.87 71.72 68.81 71.14 60.48 58.83 62.50 68.69 67.74 67.49 67.92 67.60 62.85 66.04 58.94 58.76 66.78 66.15 65.14 64.97 64.50 60.40 61.83 60.48 60.63 60.09 60.40 62.60 60.35 57.33 56.80
70.37 71.62 72.00 72.57 72.46 72.44 72.31 72.64 72.61 72.95 73.21 72.99 72.48 72.48 71.30 70.56 68.44 57.24 58.39 68.65 67.94 67.29 67.20 66.72 66.93 58.67 55.20 54.50 59.09 66.48 65.29 62.95 60.87 62.72 61.48 58.99 57.90 58.20 58.25 58.95 60.05 58.48 56.49
70.31 71.21 71.81 72.51 72.90 73.19 72.91 72.96 72.90 72.62 72.86 72.65 72.66 71.87 71.59 71.60 63.27 56.60 56.90 62.92 64.63 67.78 67.08 66.22 65.62 55.41 52.51 51.94 55.77 57.04 55.32 59.14 61.34 59.51 58.07 56.39 56.14 57.04 56.20 56.45 56.60 58.12 59.05
68.93 69.37 71.48 72.48 72.98 73.68 73.26 73.13 73.09 73.29 72.69 72.23 72.19 71.05 71.23 71.17 67.71 55.65 56.30 58.65 60.45 66.36 65.79 62.58 55.93 51.24 50.31 52.12 54.28 54.78 55.63 60.81 59.06 57.15 56.49 55.38 56.72 56.45 55.61 54.88 54.51 53.49 53.53
66.64 67.62 68.85 69.98 71.40 72.99 73.55 73.52 73.26 73.12 72.83 72.40 71.93 71.17 70.49 67.12 64.82 63.15 63.85 63.81 60.42 60.84 57.84 58.75 57.02 56.51 57.00 57.78 56.50 56.66 58.91 59.25 57.85 56.92 55.31 55.72 55.49 54.84 54.45 53.47 52.90 51.04 50.27
66.80 66.98 68.64 68.26 61.99 60.59 59.33 58.20 62.98 58.55 63.96 72.40 72.18 70.81 65.90 63.55 62.54 60.65 61.42 62.59 62.61 57.90 57.66 59.33 58.96 58.97 58.38 57.64 57.32 56.06 56.51 56.56 55.44 54.86 55.17 55.41 55.45 54.25 53.09 51.76 50.24 49.24 48.75
64.55 63.65 63.03 62.81 63.51 63.60 63.57 60.92 51.78 53.05 52.51 51.42 52.51 58.10 63.22 57.70 53.41 53.59 52.51 52.51 51.24 51.60 59.06 59.47 58.86 58.00 57.56 57.02 56.06 55.50 55.27 54.99 55.43 55.46 55.67 55.64 55.38 54.21 52.69 49.37 48.82 48.33 47.42
63.76 63.74 63.67 63.37 62.88 61.77 61.27 60.47 59.68 59.13 51.24 51.60 52.69 54.68 52.87 52.85 51.22 47.79 45.98 46.34 47.79 54.60 61.29 60.64 59.90 58.08 57.74 57.51 56.53 55.92 55.79 55.91 55.71 55.11 55.30 55.40 54.88 52.92 49.68 48.48 47.67 46.95 47.15
65.14 57.92 64.28 63.49 63.11 62.52 62.08 61.77 61.07 60.91 60.14 61.10 48.34 46.16 45.07 46.52 44.71 43.44 45.44 49.57 55.83 58.04 61.36 60.21 58.63 57.36 57.43 56.89 55.85 55.58 55.92 55.77 55.60 55.61 55.06 54.19 51.52 48.99 47.85 47.63 46.53 46.96 46.85
63.58 64.02 65.26 63.45 63.02 61.54 63.28 62.35 61.88 61.02 60.68 60.70 53.15 49.21 45.02 42.72 45.44 48.34 48.88 59.93 59.24 58.36 58.35 58.34 58.62 57.34 56.81 56.68 56.51 56.28 55.51 54.53 52.89 51.67 49.98 48.17 47.95 48.32 47.71 46.97 46.82 44.09 44.91
62.72 59.41 61.20 62.40 62.12 62.42 62.21 61.82 61.34 61.28 58.52 57.14 56.88 54.72 51.90 53.24 55.63 57.58 59.21 60.37 59.43 57.77 56.92 56.78 56.17 56.54 55.99 54.96 54.21 52.87 50.80 48.87 48.57 48.23 47.69 48.17 48.42 47.73 46.99 46.90 46.97 46.82 47.25
63.84 62.48 59.82 61.55 60.71 60.34 60.63 60.42 59.80 59.96 59.91 59.81 58.76 55.21 51.24 60.31 58.30 57.09 56.27 57.12 57.58 56.36 54.79 54.31 53.39 53.33 53.23 52.42 51.68 50.86 50.32 49.78 49.16 48.59 47.83 47.32 47.08 46.18 47.26 47.42 46.80 46.77 46.84
63.12 62.69 62.22 61.39 60.90 60.09 59.51 59.15 59.04 59.24 59.46 57.22 53.85 51.50 47.57 57.13 56.79 55.73 55.87 55.90 55.77 55.76 54.60 54.25 53.41 53.31 53.07 52.43 51.72 51.22 50.70 50.06 48.94 48.16 47.84 47.16 46.54 46.65 46.99 46.72 46.63 46.76 45.82
61.61 61.59 61.33 61.09 60.80 57.46 59.44 58.87 58.22 57.92 57.30 56.77 56.35 54.45 55.36 55.54 55.51 54.94 54.87 55.11 54.45 53.63 53.43 54.32 53.72 52.71 52.88 53.03 52.78 52.46 50.90 49.48 48.92 48.35 47.10 46.22 45.86 46.43 46.80 46.49 46.32 46.17 45.70
60.02 60.35 60.27 59.53 60.15 60.18 60.34 59.14 57.96 53.58 56.48 55.40 55.66 55.55 55.42 55.91 56.15 55.59 55.41 54.34 54.35 53.73 53.45 53.62 53.87 53.86 53.27 52.51 52.05 51.64 50.71 49.92 48.73 47.80 47.64 46.73 46.18 43.56 45.67 45.85 45.99 45.14 45.79
60.49 59.99 60.33 60.24 59.53 59.27 59.35 58.38 57.72 57.44 56.80 55.78 55.01 54.00 54.15 53.67 53.57 54.64 55.00 54.24 54.55 54.41 53.48 53.48 53.52 53.69 51.45 52.29 51.58 50.56 44.85 37.81 46.25 42.50 47.15 46.98 45.36 44.87 44.49 45.06 46.07 45.28 45.40
60.06 59.75 59.17 59.04 58.39 58.35 59.15 59.13 58.84 58.42 57.90 57.70 56.76 55.77 54.67 53.72 53.85 53.91 55.17 54.96 54.51 54.72 54.55 53.94 53.84 53.33 52.79 51.85 50.45 43.65 34.07 34.77 40.89 37.35 45.40 44.59 43.86 43.26 43.47 45.17 45.74 45.98 45.24

GFSGL_sfc_wetblb_039.txt.gz
Wetbulb
74.34 74.71 74.96 75.07 75.50 76.01 75.87 76.10 76.54 76.91 77.19 76.71 76.32 76.51 76.24 75.62 75.59 74.59 74.03 72.82 71.39 71.52 70.94 70.57 70.65 71.24 69.19 69.24 69.22 68.51 67.66 66.94 64.61 66.89 67.92 69.80 70.09 70.59 70.11 70.95 70.40 70.47 69.78
74.20 74.63 74.70 75.31 75.42 75.55 75.65 76.11 76.69 76.41 77.23 77.24 76.78 76.33 76.03 75.65 75.46 74.45 73.41 72.55 71.61 71.06 71.09 70.43 69.90 69.53 70.08 70.34 68.90 69.81 68.72 68.48 66.67 66.91 68.20 68.03 69.10 70.77 70.76 70.59 69.53 69.02 69.73
74.04 74.13 74.76 75.01 75.14 75.20 75.69 76.12 76.52 76.38 76.53 76.32 76.68 76.34 75.81 75.57 75.04 74.57 74.05 73.13 72.22 71.86 71.52 70.89 70.33 69.86 69.22 68.93 69.14 68.50 68.68 68.83 68.58 66.98 66.41 68.25 68.58 69.11 68.88 69.73 69.87 69.99 69.64
73.66 73.70 74.22 74.82 74.93 75.17 75.67 76.04 76.31 76.43 76.20 76.42 76.58 76.63 76.40 75.63 75.12 74.43 74.02 73.51 72.98 72.35 71.96 71.47 70.99 70.34 69.76 69.93 69.30 69.48 69.66 68.55 68.57 67.29 66.78 66.62 67.40 68.55 68.02 66.73 66.59 67.99 67.06
73.41 73.04 73.43 74.75 75.42 75.62 75.68 75.91 76.08 76.45 75.91 76.29 76.01 76.20 76.06 75.70 74.50 74.63 74.13 73.67 73.43 72.41 72.04 71.68 71.57 70.80 68.06 69.20 69.40 69.91 70.15 68.48 67.67 66.57 66.17 66.46 66.52 65.66 66.27 67.94 65.83 66.21 67.52
73.18 72.96 73.99 74.74 75.20 74.99 75.38 75.62 75.73 76.18 76.22 75.93 75.46 75.45 75.37 74.69 68.33 66.86 72.26 73.88 73.60 73.09 72.10 71.82 72.07 69.14 67.98 65.29 65.34 66.42 69.28 69.13 68.35 66.81 66.10 65.99 67.62 67.15 65.91 66.02 64.31 64.06 63.06
73.05 73.60 74.15 74.67 74.60 74.76 75.25 75.56 75.46 75.51 76.22 75.79 75.17 75.26 75.07 75.33 64.27 64.10 66.76 74.43 73.79 73.36 73.32 72.85 71.84 71.34 68.43 69.97 64.54 63.92 64.65 64.80 66.70 70.03 68.16 68.25 68.52 67.54 65.27 66.74 66.69 66.25 64.81
73.11 73.71 74.48 74.60 74.25 74.92 75.03 74.66 74.97 75.41 75.41 75.59 75.50 75.00 75.07 75.14 62.73 61.99 65.31 73.29 74.42 74.32 74.13 73.60 73.40 72.64 70.89 70.86 68.91 66.75 68.04 69.17 68.57 68.61 70.21 70.74 70.45 69.29 67.72 68.77 68.43 67.20 66.71
72.81 73.43 73.84 74.24 74.33 74.70 74.46 74.54 75.01 74.88 74.78 74.96 75.82 75.93 75.12 75.25 61.41 60.72 64.41 72.07 73.44 74.01 73.98 73.89 73.55 72.71 66.98 62.85 68.68 67.93 68.95 69.13 64.93 62.59 63.65 62.65 62.47 62.62 65.29 67.19 65.00 63.50 62.24
73.13 73.57 74.57 74.75 74.18 74.29 74.62 74.79 75.46 75.57 75.09 74.94 75.11 75.97 72.20 75.43 61.82 59.34 64.05 72.73 73.00 72.87 73.01 73.29 64.00 69.86 60.36 59.36 68.63 69.93 68.62 68.48 68.94 67.61 66.96 63.41 61.72 64.51 61.36 67.32 65.86 62.10 60.03
73.85 74.18 75.43 75.53 75.57 75.75 75.28 75.39 74.14 74.90 75.84 75.60 74.73 75.24 75.25 73.81 73.76 58.40 58.87 72.84 73.06 71.65 71.42 70.88 70.07 60.06 56.70 56.98 60.95 70.32 68.80 69.69 66.41 67.69 66.18 63.78 64.33 64.97 64.22 64.67 64.60 61.59 59.35
73.86 74.43 75.72 76.04 74.96 74.52 75.45 74.16 73.40 73.42 74.34 74.90 74.13 71.73 73.05 75.01 64.90 57.06 56.10 60.70 67.02 71.61 70.55 70.21 68.29 56.46 55.03 55.21 59.07 59.36 57.48 63.04 66.46 65.48 62.66 62.76 63.75 63.03 61.87 62.24 63.10 62.74 62.25
73.27 74.12 74.76 75.61 75.40 76.46 75.01 72.13 73.43 72.90 73.14 73.27 72.37 70.04 72.39 73.03 72.44 57.53 55.13 57.04 59.68 68.51 69.15 65.27 58.47 54.67 53.76 54.48 56.30 55.65 57.02 65.46 64.80 63.17 63.79 63.70 63.29 62.41 62.28 61.19 60.95 61.36 61.24
73.70 74.08 74.86 74.90 74.80 75.50 75.36 75.29 74.01 74.05 73.52 73.79 73.22 73.44 73.32 73.39 69.44 62.03 60.26 61.48 58.67 61.77 59.30 59.30 57.95 58.31 58.07 61.01 58.47 58.35 65.29 65.44 65.10 64.45 64.11 63.19 61.74 60.07 59.50 59.60 58.89 58.67 57.24
72.29 72.60 73.30 71.71 68.94 66.96 66.31 70.47 70.57 65.84 71.00 74.72 75.11 74.66 72.64 68.78 61.81 56.58 60.30 64.38 63.36 60.38 61.96 63.13 61.95 61.34 61.06 60.88 61.35 62.14 63.98 63.33 63.59 64.09 62.21 60.14 59.82 59.86 59.86 59.78 58.95 57.87 55.51
67.61 67.99 67.03 67.07 67.45 68.94 67.14 62.84 50.50 50.50 49.41 49.77 51.04 57.36 57.85 53.58 51.04 50.13 51.77 51.95 52.67 54.12 61.47 62.19 61.41 62.28 62.11 61.26 60.18 60.61 61.93 62.44 63.40 61.83 60.69 60.04 59.70 59.40 59.42 58.54 57.89 56.12 54.66
67.59 66.69 66.18 65.72 67.50 67.00 66.72 65.58 63.54 57.36 48.50 45.24 46.15 50.68 53.58 55.63 51.22 51.22 51.40 51.22 49.41 52.13 62.88 61.67 61.23 62.07 62.27 61.87 61.67 61.96 61.65 62.15 62.18 60.45 60.06 60.39 60.42 60.24 58.12 57.92 56.34 54.60 53.16
68.04 59.38 67.64 67.61 67.75 67.77 66.37 65.86 64.99 63.50 62.08 60.40 48.47 49.03 43.97 45.42 46.69 44.33 45.06 49.03 53.26 59.30 63.15 62.08 61.62 62.38 62.45 62.25 61.77 61.07 61.36 60.58 60.01 60.29 60.56 60.83 60.50 59.66 58.26 56.48 54.56 53.39 51.87
66.96 67.20 67.66 67.79 66.76 64.59 65.74 64.78 64.67 64.89 64.36 62.89 58.40 51.45 46.33 41.58 41.25 42.16 44.88 61.18 60.45 62.69 62.98 63.55 63.43 62.30 61.62 61.38 60.93 61.11 61.07 60.80 60.73 61.08 60.82 60.65 60.34 58.54 56.02 55.04 53.02 47.35 48.78
66.71 59.90 63.46 65.02 64.34 65.00 66.34 66.04 65.96 65.20 64.17 62.38 60.99 60.20 53.42 55.14 53.89 55.41 60.30 61.90 61.89 62.52 63.20 62.22 62.89 63.02 62.11 61.13 60.97 61.38 61.14 59.93 60.47 60.70 60.24 58.95 57.02 56.01 54.86 52.69 51.85 51.08 50.94
64.56 65.77 61.33 66.72 66.74 66.46 66.23 64.65 63.15 61.42 61.36 61.51 61.47 57.68 49.41 60.34 58.48 60.15 61.38 62.13 62.03 61.63 63.73 64.38 63.18 62.30 61.19 61.21 61.21 60.64 60.21 59.63 59.48 58.46 56.87 56.17 55.60 54.08 53.25 52.53 51.92 51.57 50.98
65.32 64.55 65.52 64.48 63.97 64.33 63.88 63.77 62.94 61.43 59.97 58.22 56.88 54.42 48.86 61.00 60.60 61.17 62.77 63.85 64.57 64.71 64.33 62.79 61.88 62.20 61.87 61.12 60.42 59.89 58.68 57.79 57.43 56.90 55.68 54.82 54.03 53.20 52.72 52.10 51.69 51.65 50.65
66.84 66.28 66.10 65.55 64.56 59.93 63.39 63.82 63.93 62.99 61.04 59.74 57.87 59.09 61.25 63.18 63.55 63.31 62.88 63.17 62.90 62.21 62.48 62.19 60.99 60.58 60.75 60.04 59.90 59.37 57.83 57.24 56.97 56.47 54.60 53.67 52.94 52.64 52.33 51.50 51.25 50.53 49.68
65.44 65.62 64.95 64.90 64.45 64.32 63.71 62.96 61.87 57.22 62.27 60.05 58.91 58.97 62.06 62.25 61.89 61.95 62.24 62.10 61.31 60.81 60.92 60.78 60.74 59.64 59.31 59.35 59.06 58.79 58.20 57.54 56.97 55.81 55.17 53.83 52.63 50.07 51.86 51.16 50.90 49.61 49.50
63.36 62.91 62.89 63.12 63.38 63.65 63.95 63.40 63.00 62.58 61.87 61.84 61.93 61.76 61.45 59.84 59.66 60.64 61.00 60.92 60.46 60.12 59.88 60.43 60.33 60.03 59.69 59.18 58.77 58.12 47.40 41.81 53.61 47.79 54.37 53.77 52.75 52.26 51.08 50.42 49.33 49.11 49.45
61.26 60.73 59.31 59.44 60.53 60.13 59.96 59.80 59.39 58.71 58.12 58.80 58.16 57.74 58.48 61.63 60.74 60.53 60.51 61.05 59.75 60.00 60.07 60.03 59.93 59.74 59.01 58.79 58.71 48.84 34.46 35.84 46.19 39.64 52.81 52.89 51.87 50.77 49.80 49.14 48.61 48.48 49.04

GFSGL_sfc_wetblb_045.txt.gz
Wetbulb
79.82 80.00 80.24 80.32 80.51 80.97 79.80 80.12 80.15 81.27 81.99 80.27 81.09 79.78 79.78 79.71 80.31 80.35 79.87 79.44 78.18 77.87 77.64 77.53 75.90 76.82 71.53 70.92 71.27 70.79 69.60 69.19 66.55 68.20 70.11 73.63 75.20 73.09 72.52 73.01 72.23 73.08 71.02
79.55 79.75 79.97 80.52 80.60 80.30 80.25 80.32 81.14 80.71 81.48 81.79 80.52 80.48 79.88 79.71 80.16 80.12 78.99 77.32 78.22 76.98 76.62 76.62 75.74 73.50 75.89 75.67 71.46 75.05 71.52 73.18 68.13 73.16 73.35 71.03 72.70 74.78 74.93 74.76 72.03 70.72 71.60
78.84 78.78 79.61 79.92 80.30 80.09 80.23 80.86 81.03 80.93 81.15 81.24 80.95 80.59 80.09 79.70 79.76 80.54 79.91 79.23 78.36 78.13 77.59 76.76 75.83 75.47 76.02 71.94 72.35 71.69 70.76 71.93 71.62 68.60 68.20 70.27 70.87 71.42 72.56 74.14 74.22 73.46 71.01
77.74 78.01 78.66 79.77 79.85 80.17 80.45 81.22 80.94 81.39 80.84 81.15 81.20 80.79 80.74 80.45 79.71 79.89 79.65 79.50 78.92 78.43 78.35 77.62 76.81 75.49 74.92 75.45 74.37 73.62 74.19 71.38 71.07 69.49 68.26 68.03 69.57 73.03 70.78 68.93 69.52 70.35 69.79
78.19 78.35 78.52 79.91 80.66 80.96 80.58 80.60 80.94 81.18 81.01 81.35 81.22 81.00 81.23 80.55 79.00 79.34 79.25 79.39 79.36 78.79 78.89 78.49 77.63 75.64 71.55 73.13 72.90 73.16 72.87 71.66 68.69 68.67 67.93 67.82 67.31 68.05 69.25 69.46 68.06 68.81 69.30
78.35 78.01 79.14 79.71 80.48 80.58 80.64 80.58 81.04 80.85 81.13 81.14 80.88 80.62 80.50 79.85 71.38 68.60 75.84 78.78 79.32 79.14 78.60 78.73 78.31 72.82 71.61 67.30 67.47 67.77 71.50 72.91 71.07 68.28 68.04 68.66 72.73 71.44 69.68 68.72 68.23 66.96 65.77
77.75 79.39 79.04 79.68 79.50 80.20 80.69 80.57 80.29 80.38 80.99 80.75 80.58 80.85 80.34 80.66 67.99 66.14 68.48 78.41 79.05 79.01 79.36 79.19 78.34 76.32 73.04 74.65 66.73 66.07 65.84 66.01 69.06 72.48 70.73 71.74 74.38 73.51 73.38 73.17 71.97 69.52 67.32
78.39 77.61 79.53 79.36 79.62 80.21 80.40 80.21 80.68 80.71 80.60 80.43 80.58 80.86 80.57 80.48 67.06 63.09 66.32 77.08 77.98 78.48 78.20 78.24 78.27 77.60 75.92 74.44 73.97 70.51 69.74 69.90 69.42 69.85 72.63 72.99 72.95 75.32 74.77 74.00 73.05 72.12 70.69
77.94 78.23 78.15 79.75 79.56 79.99 79.70 80.21 80.52 80.32 80.29 80.18 80.37 80.52 80.14 80.24 65.01 62.59 65.64 75.82 76.58 76.87 77.28 78.11 77.96 77.69 71.77 65.88 74.28 72.87 70.53 70.10 65.83 64.28 64.60 64.63 66.23 66.93 69.46 71.41 67.91 67.49 65.34
77.83 78.51 79.52 80.10 80.04 79.59 80.20 80.34 80.55 80.51 80.00 79.00 79.66 80.34 76.25 79.95 65.56 60.38 66.08 76.68 75.77 75.43 76.56 76.48 67.81 75.18 66.80 61.71 73.80 74.12 72.45 70.50 70.07 69.23 67.55 65.86 65.75 66.56 64.40 70.83 70.24 66.33 68.06
77.85 78.83 79.94 80.26 80.40 80.55 80.69 80.80 80.46 80.04 78.89 79.31 79.27 79.79 80.23 78.51 77.57 58.85 59.56 74.70 74.33 74.39 75.00 75.64 76.74 63.75 62.60 58.73 63.16 74.99 72.43 71.83 67.42 69.52 68.29 68.00 68.41 69.41 67.86 67.79 69.75 68.28 67.81
79.36 78.80 79.65 80.37 79.49 79.30 80.83 80.69 80.60 80.07 79.16 79.31 78.68 78.64 78.75 80.36 68.80 59.29 61.65 63.93 70.84 75.81 74.90 75.78 75.86 60.07 59.88 57.19 59.95 65.38 60.84 64.69 69.87 68.43 67.93 67.52 67.50 67.86 68.55 68.16 68.99 69.97 69.58
79.93 79.52 79.88 80.48 79.94 80.08 79.76 80.11 78.37 79.24 76.76 76.53 76.01 75.83 76.01 77.37 78.27 62.67 59.96 59.18 59.00 70.45 76.45 69.25 60.65 54.08 54.67 56.63 58.86 59.41 60.68 68.79 68.59 67.12 66.42 66.26 67.19 68.16 68.48 68.24 69.26 69.80 68.41
79.50 79.89 80.07 79.77 79.64 79.68 78.36 77.86 77.00 76.42 76.17 75.60 75.38 75.06 75.84 75.84 76.29 77.22 75.77 68.69 58.80 64.60 65.93 71.52 67.09 62.54 60.13 63.70 60.51 61.84 67.77 67.41 67.51 67.84 67.01 67.48 67.82 67.00 65.81 65.51 63.58 63.15 61.69
77.78 77.19 78.25 77.52 77.53 78.02 76.92 72.46 76.55 74.84 68.58 76.03 76.05 76.07 75.24 75.11 75.08 65.04 69.90 75.89 73.01 68.16 68.40 68.52 65.42 64.96 62.88 63.93 64.45 66.31 67.91 68.94 67.73 68.35 68.07 67.53 65.37 63.95 63.69 62.90 62.49 62.29 59.79
76.07 76.18 75.88 76.40 76.84 77.11 74.42 69.95 48.73 49.62 46.25 45.76 45.56 59.10 73.37 57.66 53.06 53.79 53.06 53.43 52.16 53.79 68.05 65.58 64.43 63.57 62.98 63.14 64.43 64.99 66.18 66.63 67.78 66.46 65.43 64.37 63.78 62.35 61.23 61.92 62.23 61.38 60.65
78.29 78.26 76.00 74.23 76.42 76.57 76.60 75.15 73.42 56.62 46.86 45.43 44.72 44.91 44.11 42.92 45.63 44.54 43.27 47.26 46.90 54.15 66.21 64.03 63.65 63.65 63.61 64.25 64.20 64.59 64.61 66.25 66.92 65.47 65.14 65.35 62.77 61.85 61.68 60.94 61.58 61.51 59.68
75.17 63.15 75.32 75.20 75.31 75.20 74.75 73.19 73.61 72.94 72.14 69.77 50.10 50.22 44.14 43.93 43.06 43.46 45.99 54.10 61.73 62.31 64.15 62.93 63.11 63.19 63.41 63.00 63.62 63.39 65.82 65.83 65.00 67.12 65.65 62.29 62.77 63.05 61.67 62.13 61.62 60.49 59.52
73.80 73.52 73.81 74.08 73.95 71.66 72.77 72.09 71.24 70.35 69.37 68.20 65.53 56.62 50.42 44.36 45.63 47.62 50.71 62.76 61.88 62.22 64.43 64.67 64.71 63.98 63.54 63.50 63.96 64.35 64.53 64.75 64.47 63.35 62.69 63.17 63.73 63.25 62.57 61.48 61.15 53.77 56.28
70.53 63.71 67.41 71.37 70.79 71.19 70.98 70.25 69.36 69.27 68.50 68.57 68.44 68.51 63.88 62.35 64.65 62.94 64.55 66.09 64.94 64.89 66.17 66.88 67.20 66.76 66.57 64.70 64.39 64.16 64.38 62.62 62.74 63.27 64.02 64.75 64.29 63.44 61.93 61.50 60.54 58.84 57.71
69.91 69.82 65.92 70.40 70.26 70.11 69.70 68.87 67.57 67.43 67.99 68.17 67.64 64.08 51.92 66.09 65.42 65.37 64.00 65.15 65.51 65.24 66.49 66.95 67.10 66.41 66.24 65.70 64.82 62.79 62.65 62.75 63.72 63.19 62.42 63.31 64.19 62.18 62.63 61.70 60.59 59.08 56.85
69.99 69.70 69.46 69.06 68.81 68.28 67.94 67.33 67.02 66.59 66.08 64.53 64.70 61.81 48.89 64.30 65.55 65.83 65.11 65.98 66.98 67.31 67.64 67.31 66.76 66.13 65.18 64.24 63.13 63.81 64.10 63.76 64.48 64.52 64.37 64.13 63.46 62.38 61.59 59.95 58.84 57.04 55.35
67.86 68.43 68.32 67.83 67.32 64.10 66.67 67.55 66.86 66.88 66.49 66.01 65.46 64.12 64.18 66.13 66.81 66.03 64.41 65.36 66.54 67.39 66.90 66.47 65.14 63.65 63.94 64.94 64.89 64.10 63.80 63.99 64.67 65.30 64.47 63.32 62.02 61.00 60.26 58.90 56.65 55.17 54.54
64.66 64.87 65.02 65.47 64.98 65.55 66.25 66.42 65.68 60.66 65.21 65.77 66.17 66.39 66.78 67.09 66.92 66.92 67.42 67.59 67.91 67.91 67.50 66.83 66.65 66.51 65.93 65.74 66.46 65.76 65.70 65.48 65.11 64.26 64.12 62.23 60.65 57.64 59.09 57.04 55.68 55.30 54.72
63.03 62.02 62.21 64.29 64.00 64.72 64.88 63.54 63.62 65.73 65.56 66.07 64.85 64.23 64.98 65.85 65.47 65.83 66.36 66.80 67.23 66.84 67.13 66.97 66.53 66.29 65.67 64.82 64.22 63.49 47.77 44.39 59.95 53.81 62.28 61.69 60.50 60.31 57.17 56.23 55.82 55.20 54.66
60.32 59.84 59.95 60.32 60.55 61.23 60.77 59.80 59.97 59.97 61.12 61.25 62.24 63.15 64.16 63.78 63.39 62.55 64.19 64.46 64.56 64.45 64.38 64.23 64.17 64.10 63.66 62.98 61.92 45.71 35.97 41.74 52.54 42.00 58.52 59.23 58.16 57.48 56.61 55.93 55.73 54.56 54.18

GFSGL_sfc_wetblb_048.txt.gz
Wetbulb
77.95 78.26 78.02 78.14 78.02 77.59 76.27 77.27 76.83 77.66 78.25 80.19 79.48 78.13 77.72 77.94 78.09 78.43 77.44 77.16 77.13 76.18 76.25 75.33 74.26 73.64 72.38 72.80 72.08 72.12 70.87 70.06 66.93 68.46 71.43 72.40 71.52 70.48 69.88 71.80 71.28 70.63 68.57
78.34 78.22 78.10 78.63 78.93 78.37 77.28 77.08 77.84 78.28 78.86 78.73 79.45 78.46 78.03 77.50 78.05 77.90 77.38 76.24 76.80 75.74 75.36 75.63 75.33 73.63 73.32 74.11 73.98 71.06 70.74 71.49 69.07 68.17 71.12 71.02 71.09 71.46 71.83 72.38 71.39 70.68 70.08
78.24 78.33 78.20 78.41 78.60 78.50 78.56 77.90 78.20 77.77 78.53 78.62 79.57 78.37 77.72 77.70 77.29 77.73 77.74 77.39 75.74 76.73 76.21 74.97 74.51 74.30 72.85 71.52 71.96 71.70 71.05 72.23 72.47 68.72 68.98 71.61 71.24 71.81 71.03 71.56 71.88 71.27 71.45
77.34 78.15 77.89 78.22 78.55 78.90 79.03 79.13 78.33 78.59 77.69 78.72 78.63 78.59 78.66 77.96 77.74 77.44 77.53 77.70 77.29 76.70 76.85 76.09 75.45 74.17 72.69 73.05 71.44 70.61 71.12 70.43 69.57 69.83 68.30 67.28 70.21 70.48 70.23 69.02 68.87 70.49 69.04
76.02 76.95 77.47 78.11 78.98 79.03 79.02 79.14 79.28 78.63 78.70 78.33 78.61 78.78 78.24 78.34 78.08 77.31 77.26 77.68 77.51 77.05 76.72 76.82 76.27 75.02 71.85 71.58 72.70 72.00 69.95 70.08 69.23 67.37 67.11 67.47 67.26 68.51 67.55 68.30 67.47 68.76 68.52
76.41 76.36 77.61 77.92 78.00 78.75 78.83 78.85 78.93 79.03 78.69 79.25 78.67 78.63 78.50 78.26 71.96 69.59 74.92 76.97 77.56 77.03 76.54 76.41 76.70 73.17 71.83 68.35 68.48 69.27 71.04 69.00 68.18 67.27 66.52 65.44 66.39 68.01 70.16 67.85 67.39 66.99 64.81
76.31 77.54 77.68 77.89 77.75 78.21 78.83 78.67 78.42 78.47 78.86 78.66 78.74 78.85 78.35 78.59 68.87 67.10 69.02 76.60 76.66 76.93 76.85 76.53 76.17 76.80 72.58 73.26 67.55 67.11 66.80 66.90 68.01 69.17 66.44 67.35 68.54 69.89 68.26 69.24 68.77 68.05 66.76
77.41 77.25 78.34 78.21 77.83 78.50 78.67 78.49 78.56 78.50 78.55 78.47 78.44 78.72 78.53 78.61 68.49 65.20 66.74 75.21 76.12 76.47 76.49 76.55 76.02 76.01 75.63 74.08 72.39 69.53 69.81 69.03 67.91 69.56 69.72 69.15 71.44 72.15 71.46 70.17 69.09 68.62 68.80
76.66 76.80 77.42 78.60 78.08 78.11 78.09 78.45 78.78 78.50 78.54 78.58 78.86 78.76 78.44 78.38 66.41 64.58 65.45 73.79 74.94 75.23 75.73 76.41 76.61 76.26 71.93 65.87 72.98 71.51 69.45 69.12 65.62 64.79 66.73 66.46 67.23 68.07 70.52 69.60 67.54 66.17 64.69
76.72 76.94 78.32 77.89 78.15 77.98 78.18 78.52 79.16 79.11 78.39 78.76 78.66 79.01 75.17 78.71 68.37 62.42 65.28 76.19 74.28 74.27 74.77 74.97 67.54 73.77 66.95 62.73 71.98 72.42 70.96 69.77 69.27 67.55 66.79 64.43 65.19 66.02 65.61 69.99 68.48 65.25 64.34
77.52 78.18 78.19 78.29 77.56 78.79 78.91 79.01 79.03 78.80 78.68 78.32 78.38 78.84 78.99 77.75 77.71 61.01 59.82 76.60 76.08 74.42 73.45 73.10 74.49 63.36 60.37 59.58 62.12 73.24 71.72 72.18 68.97 68.57 67.61 66.86 66.86 67.11 66.68 67.13 68.50 66.88 64.66
78.47 78.23 78.24 78.90 77.61 78.56 78.81 79.10 79.32 78.81 78.03 77.89 77.79 77.95 78.48 78.86 68.61 61.68 58.06 61.94 70.76 75.40 74.43 74.72 74.63 60.65 58.72 58.71 59.55 66.04 61.80 64.70 71.75 68.32 67.08 65.96 65.53 65.62 67.02 67.31 67.15 67.47 67.15
81.41 79.28 78.84 78.84 78.84 78.50 78.63 78.48 78.37 78.63 77.71 77.11 76.66 76.83 76.70 78.14 78.48 61.95 57.57 57.80 61.14 69.32 72.05 68.37 59.67 56.62 52.41 56.41 57.92 60.52 59.73 69.09 68.80 67.08 65.86 66.02 66.09 66.90 67.45 67.58 67.36 66.68 65.38
80.51 79.69 79.38 79.08 78.43 78.70 79.08 78.84 78.09 77.63 77.22 76.62 76.41 75.71 76.72 76.86 76.55 78.11 69.07 64.64 61.87 65.30 66.88 68.72 68.12 62.83 61.19 63.40 63.52 61.37 68.23 70.51 68.19 66.74 64.38 64.65 65.74 66.98 66.86 67.40 65.02 63.94 61.38
79.43 79.03 78.87 78.78 77.87 78.45 74.36 71.45 77.19 70.65 67.28 77.08 76.27 76.73 75.56 75.56 73.61 64.39 66.51 74.05 75.60 69.78 70.14 73.24 72.70 71.11 68.98 68.37 66.13 66.04 68.44 69.52 66.96 65.14 63.56 63.63 65.69 66.25 63.89 63.78 62.49 61.63 59.45
78.00 77.76 76.77 76.78 77.84 77.61 70.36 66.86 48.44 48.08 45.65 45.51 47.28 65.41 62.46 52.79 47.88 47.66 47.34 47.70 50.96 54.18 68.91 69.87 67.01 66.56 66.29 66.31 64.41 65.11 66.67 66.85 66.97 65.55 65.86 65.82 64.71 62.83 62.01 62.26 61.66 60.29 58.20
78.12 76.99 76.30 73.81 77.27 76.49 73.85 71.42 65.16 54.83 45.42 44.24 44.26 46.07 47.32 45.42 44.96 45.34 45.89 45.89 48.97 58.94 68.78 65.56 64.27 63.36 62.98 62.80 63.50 64.73 64.98 65.32 66.95 66.67 65.15 64.16 63.53 62.79 61.18 60.58 59.38 58.67 58.54
78.84 63.61 76.65 75.86 77.11 76.40 75.13 75.22 73.56 68.11 66.49 62.51 49.68 49.99 43.68 45.31 45.15 45.34 47.52 54.84 64.00 63.59 64.46 63.45 62.79 62.68 63.33 62.90 63.16 63.48 64.21 65.02 65.02 64.84 63.98 63.58 62.79 61.32 60.22 59.30 59.53 58.41 58.66
75.81 77.39 78.31 77.46 77.12 74.56 74.60 74.54 73.75 74.60 72.54 63.69 60.08 55.07 49.92 44.62 44.98 47.34 53.08 65.87 64.53 64.61 64.44 65.06 65.88 65.00 64.02 63.29 62.81 62.97 63.40 64.25 64.41 64.39 63.48 62.45 61.76 60.59 59.60 59.76 59.43 56.07 57.14
72.73 65.16 69.69 73.25 72.86 72.48 72.18 71.37 70.66 70.47 69.62 68.70 68.01 64.06 62.49 60.73 64.14 65.41 66.19 65.52 65.03 64.72 64.66 66.29 66.85 66.44 66.54 65.08 65.51 65.60 65.19 63.44 63.67 62.63 62.61 62.03 61.60 61.30 60.25 60.12 60.16 57.54 57.35
70.94 70.84 67.04 71.07 70.96 71.02 70.95 69.98 69.92 69.26 68.37 68.39 65.17 59.08 49.98 66.50 66.44 65.24 64.76 65.60 65.02 65.17 66.23 67.08 66.62 66.24 66.77 66.26 65.41 64.25 64.28 63.82 63.77 62.88 62.46 62.36 62.29 61.74 61.19 60.51 59.92 57.81 56.85
70.13 69.80 70.40 69.81 70.01 69.37 69.00 68.99 68.57 67.87 66.57 65.58 64.97 61.19 49.88 65.46 65.42 65.26 65.55 65.93 66.38 67.76 67.68 67.15 66.17 66.75 66.25 66.10 65.68 65.42 64.20 63.91 63.85 63.41 63.18 62.96 62.60 61.54 60.61 60.70 59.56 58.13 55.98
69.38 68.41 68.51 68.18 67.69 64.24 66.51 66.65 66.12 66.27 66.17 65.55 64.71 63.67 64.47 65.47 65.29 65.41 65.53 65.85 66.92 67.69 68.13 67.63 66.98 66.29 66.42 66.72 65.82 65.35 64.56 64.12 64.07 63.42 61.23 60.31 60.72 61.17 61.12 59.35 58.19 56.49 54.32
65.61 65.06 65.10 64.95 65.16 64.29 63.84 65.17 64.89 60.88 65.28 65.54 65.48 65.82 65.07 65.82 66.51 66.57 66.94 66.78 66.66 66.83 67.21 66.93 66.30 65.57 65.23 66.15 65.69 65.48 64.29 64.27 64.57 64.81 63.81 61.90 60.91 57.87 59.91 58.93 57.20 55.13 54.21
60.31 60.87 61.83 61.28 60.56 62.39 62.34 61.96 62.10 60.60 60.29 60.95 62.41 61.86 61.09 62.63 62.72 62.24 66.15 67.63 68.36 68.39 67.74 67.48 67.20 66.82 66.01 65.34 64.72 64.41 46.26 47.77 60.84 56.04 64.19 63.56 61.98 61.42 59.66 58.33 56.38 55.22 54.95
57.47 57.69 58.05 58.46 58.66 59.25 59.08 58.97 58.86 59.84 59.59 58.39 57.88 57.61 58.22 58.53 59.53 60.28 60.34 60.94 60.47 60.46 63.48 66.67 67.12 66.40 66.85 66.75 59.74 42.64 36.16 42.88 49.33 42.40 61.74 62.37 61.40 60.48 58.67 57.47 57.46 54.98 55.15

GFSGL_sfc_wetblb_051.txt.gz
Wetbulb
74.29 73.88 74.46 74.59 73.98 73.03 73.93 72.81 72.30 72.38 73.23 75.47 75.12 74.98 75.20 74.86 75.68 74.77 73.74 74.10 74.02 73.35 72.88 72.28 71.34 70.32 66.78 66.41 66.95 66.32 64.24 63.72 60.76 62.43 64.29 65.73 64.96 66.83 66.63 65.45 67.67 67.12 64.65
74.78 74.76 74.38 75.14 75.36 74.06 73.03 73.52 72.85 72.39 73.79 73.88 76.07 75.64 75.62 75.46 75.22 75.22 74.14 74.68 73.16 73.21 72.84 71.64 71.96 72.08 68.64 67.65 69.20 65.34 65.41 65.65 62.82 60.40 65.31 66.73 65.13 65.72 65.34 66.43 67.51 68.92 67.58
75.00 75.16 75.26 75.13 75.39 75.24 74.13 73.51 74.11 73.26 73.14 74.66 75.05 75.58 75.46 75.13 75.09 74.96 75.31 74.91 73.26 73.82 73.59 72.94 72.03 71.73 69.47 69.14 68.24 68.09 66.65 65.87 66.38 62.68 64.51 66.22 66.90 66.94 66.83 67.80 68.04 67.40 68.42
74.85 75.23 75.18 75.49 75.66 75.87 76.15 75.32 74.16 74.86 74.17 75.64 75.11 75.15 75.54 75.38 75.01 75.41 75.17 74.99 74.77 73.72 74.24 73.87 73.25 72.64 71.31 69.94 68.22 67.99 66.98 66.11 65.39 64.95 62.82 63.49 66.07 67.27 66.38 65.70 65.65 67.50 67.15
74.60 74.91 75.09 75.72 76.26 76.32 76.36 76.60 76.25 74.86 75.38 74.60 75.74 75.44 75.84 75.82 75.87 74.80 75.00 75.13 74.89 74.62 74.09 74.57 74.46 73.55 71.64 70.60 70.76 68.87 67.45 66.53 66.01 64.97 63.66 63.31 62.78 65.47 66.53 66.26 65.56 66.33 67.02
72.16 74.63 75.70 75.89 76.17 76.36 76.48 76.45 76.63 76.52 75.34 75.71 74.54 75.48 75.76 76.29 70.92 69.26 73.79 74.77 74.95 74.75 74.52 74.23 74.83 72.38 71.22 68.08 68.47 68.74 69.36 66.64 65.23 66.45 65.20 64.53 64.99 64.61 66.78 66.68 66.46 64.59 63.75
72.37 72.84 74.71 75.65 75.73 75.99 76.53 76.48 76.35 76.46 76.72 75.58 75.83 75.46 75.68 76.12 67.83 66.92 69.08 75.31 74.63 75.19 75.07 75.07 74.57 75.25 71.61 72.93 67.55 67.00 67.03 66.85 66.58 66.19 66.29 65.28 65.01 66.26 66.79 66.06 65.71 64.72 63.63
72.23 72.99 73.54 74.82 75.42 75.78 75.96 76.04 76.28 76.56 76.48 76.45 76.17 76.34 76.15 76.38 67.35 65.03 66.90 74.84 75.05 74.76 75.40 75.66 75.02 74.94 74.41 73.27 72.60 69.84 70.07 69.43 68.85 68.09 66.93 67.37 67.05 67.55 67.29 67.72 66.58 66.16 66.41
72.70 73.42 74.02 75.15 75.09 75.48 75.23 75.69 76.35 76.22 76.18 76.26 76.73 76.33 76.25 76.56 65.09 63.86 65.23 73.01 74.51 74.65 74.90 75.04 75.61 75.36 70.85 65.27 72.83 71.16 70.10 70.06 67.23 64.31 65.41 64.67 64.77 66.25 68.76 68.04 65.63 64.55 62.78
73.12 74.04 74.97 75.51 75.51 75.05 75.72 75.81 76.76 76.60 76.23 76.57 76.30 76.97 73.57 76.49 67.04 62.06 64.87 74.65 73.79 73.92 74.41 74.51 67.32 71.20 65.14 62.20 71.80 72.56 70.37 70.06 69.60 68.85 65.45 65.05 64.72 66.77 66.20 68.36 67.19 64.33 62.60
73.82 73.63 74.61 75.64 75.75 76.07 75.98 76.48 76.49 76.60 76.55 76.22 76.07 76.53 77.05 75.82 75.53 61.31 60.07 74.65 75.57 74.76 74.01 73.68 73.99 62.52 61.05 59.09 61.27 73.65 72.16 72.01 69.71 69.04 67.98 66.79 67.40 67.80 68.56 68.29 68.00 66.11 64.62
73.64 73.53 73.66 74.13 75.08 76.15 75.76 76.13 76.39 76.44 76.09 75.99 75.81 75.99 76.82 77.02 66.92 62.92 58.88 61.02 70.23 75.59 75.11 75.26 73.25 60.85 55.75 56.67 59.41 63.69 62.91 63.39 72.15 70.47 68.29 66.56 66.38 66.44 66.60 67.64 68.02 68.32 68.23
74.15 73.52 74.14 74.54 75.26 73.75 75.54 75.82 75.78 76.13 75.96 75.62 75.59 75.29 75.66 76.59 76.55 62.08 58.48 58.72 60.55 70.85 76.46 72.69 63.50 57.19 57.67 55.72 55.75 58.04 57.73 67.10 71.54 70.75 69.42 67.91 67.19 67.33 66.72 66.96 66.52 67.46 66.10
72.21 74.09 74.76 74.62 74.68 73.94 75.83 76.18 76.25 76.24 75.85 75.54 75.27 74.92 74.92 75.06 75.55 76.02 67.93 63.68 59.97 62.57 66.14 69.83 65.56 62.90 59.91 63.54 62.62 58.42 62.85 66.40 69.17 70.48 70.01 67.73 67.01 66.26 65.60 66.16 65.24 65.33 62.52
72.25 75.15 75.37 75.13 74.31 73.33 58.07 57.11 72.02 63.37 66.21 76.02 75.68 74.77 74.46 73.67 73.27 63.76 67.08 68.18 68.83 65.61 67.15 70.65 71.06 68.09 67.68 66.76 65.26 63.99 63.04 65.37 67.55 69.42 68.90 66.69 64.97 64.50 64.25 65.54 65.63 63.77 60.61
73.31 74.26 74.31 74.13 74.78 70.36 62.30 58.56 47.69 46.54 44.99 44.68 48.58 66.88 58.14 53.98 49.60 48.15 47.97 49.23 50.87 52.32 65.78 68.84 69.67 69.58 68.04 66.78 65.44 64.72 65.42 66.10 68.25 68.93 68.45 66.98 63.63 63.81 63.06 64.15 63.22 61.99 60.02
74.63 73.50 73.61 71.63 74.45 70.82 66.81 64.00 59.83 54.40 46.66 45.07 44.70 47.60 53.33 49.58 47.06 45.25 45.79 48.15 53.04 58.48 66.24 64.61 64.81 63.83 63.43 63.63 63.63 63.81 64.13 65.40 65.45 65.44 64.15 64.35 63.20 63.32 61.87 61.73 61.78 60.77 58.35
74.49 67.17 72.13 72.14 72.66 72.85 69.59 67.30 64.08 61.32 62.17 58.33 49.52 47.71 47.24 48.69 46.52 46.33 47.06 55.00 61.79 61.71 62.64 62.70 62.52 62.64 61.53 61.57 61.23 62.16 63.18 64.51 64.72 65.03 63.70 63.18 62.44 62.01 61.15 59.90 59.50 58.40 57.05
72.17 72.87 72.28 73.14 73.34 73.24 72.06 70.20 67.58 66.59 61.24 58.25 57.43 53.15 48.80 44.16 45.61 46.33 47.78 61.92 60.74 60.50 60.56 60.59 60.44 60.22 60.24 60.10 60.06 60.32 60.95 63.61 63.61 63.63 63.25 62.66 62.44 61.41 60.06 59.42 58.12 54.58 54.97
70.06 64.63 67.01 70.20 70.44 71.36 71.39 70.70 69.59 64.75 61.91 59.88 60.71 58.62 59.65 56.75 60.63 60.81 61.21 61.32 61.19 60.67 61.54 61.35 61.38 62.01 60.98 61.77 60.06 59.90 59.74 61.14 63.27 62.86 62.44 62.11 61.03 59.68 58.85 58.74 58.36 55.22 54.26
69.89 69.37 65.78 68.51 67.57 68.47 67.88 67.00 66.04 65.78 63.09 61.46 59.27 56.12 53.59 61.35 61.07 61.06 61.05 60.80 60.87 60.86 60.96 61.99 63.78 63.78 61.60 61.12 60.63 61.35 61.29 62.23 61.17 60.29 61.13 60.36 59.87 58.88 59.02 58.69 57.53 55.60 54.55
67.21 67.71 68.05 67.61 66.78 66.10 66.13 65.71 65.32 63.81 62.83 61.78 59.35 57.05 48.69 61.98 61.88 61.03 61.15 61.67 62.57 62.92 63.36 62.97 63.07 62.40 62.39 61.84 61.22 61.11 62.17 61.67 60.20 59.58 59.72 59.54 59.75 59.28 58.27 57.27 55.49 53.45 52.92
66.18 65.17 65.59 64.43 64.02 62.15 62.90 62.64 62.72 62.30 61.77 60.58 59.55 59.00 60.30 61.96 61.62 62.13 62.94 62.67 62.96 64.34 64.73 64.23 63.14 62.46 62.57 63.14 62.75 62.10 62.03 61.84 61.08 61.07 60.25 59.36 58.95 58.16 57.29 56.66 57.22 54.69 52.43
62.96 62.14 61.39 61.04 60.91 61.13 60.90 60.35 60.59 57.41 59.99 60.14 60.13 60.46 60.55 60.41 60.55 62.21 62.75 62.93 63.01 63.81 63.77 63.53 63.58 62.87 62.14 62.15 62.09 62.30 62.32 62.14 61.92 61.94 61.76 58.78 58.70 57.42 57.43 54.28 53.21 52.43 52.07
60.02 59.46 59.27 59.32 59.20 58.92 59.43 59.12 57.78 57.59 57.22 56.88 56.62 56.81 57.25 56.89 56.70 56.86 57.02 58.32 55.65 53.86 59.01 60.83 62.43 62.49 62.51 62.18 62.30 62.22 54.96 49.91 59.38 55.93 62.09 61.25 58.48 57.02 57.11 54.42 51.52 50.03 48.81
57.39 56.87 56.32 55.60 54.68 54.67 54.46 53.81 53.73 53.89 53.56 53.31 52.53 51.16 51.08 50.54 50.76 50.10 50.51 51.30 49.96 47.83 46.33 46.51 45.30 43.57 43.39 45.68 46.24 42.58 35.78 40.81 45.59 46.18 58.52 57.55 57.10 56.84 55.81 54.32 52.89 49.72 49.09